GFSSW_850_dewp_000.txt.gz
Dewpoint
-5 -5 -5 -4 -4 -4 -4 -6 -5 -4 -8 -9 -7 -4 -3 -6 -10 -13 -16 -15 -13 -9 -8 -7 -8 -7 -8 -11 -14 -16 -12 -11 -10 -12 -13 -15 -12 -13 -12 -11 -7 2 -0 2 7
-3 -3 -3 -3 -3 -4 -5 -6 -4 -5 -8 -8 -5 -4 -3 -4 -10 -13 -15 -13 -10 -8 -7 -6 -7 -7 -11 -12 -12 -13 -12 -10 -11 -13 -13 -12 -11 -13 -14 -7 2 6 2 4 5
-1 -2 -2 -2 -3 -5 -6 -5 -3 -7 -8 -6 -5 -5 -3 -2 -9 -11 -13 -10 -6 -5 -5 -5 -6 -6 -10 -10 -10 -11 -8 -9 -9 -11 -10 -8 -9 -10 -11 -9 -6 5 5 5 4
-1 -1 -2 -4 -5 -6 -6 -4 -3 -7 -8 -6 -5 -3 -2 -4 -5 -7 -4 -4 -4 -5 -5 -5 -6 -6 -8 -8 -9 -8 -8 -8 -8 -9 -9 -8 -8 -8 -9 -10 -7 -3 1 6 6
-2 -3 -4 -5 -5 -5 -4 -3 -3 -7 -8 -7 -7 -3 -1 -3 -4 -4 -4 -4 -4 -6 -6 -6 -5 -5 -4 -5 -6 -7 -8 -7 -7 -7 -9 -8 -8 -9 -9 -9 -8 -6 2 4 4
-2 -3 -4 -3 -3 -3 -3 -2 -3 -6 -9 -9 -5 -2 -1 -4 -4 -3 -3 -5 -5 -6 -6 -7 -6 -5 -5 -5 -5 -5 -6 -6 -7 -7 -7 -7 -7 -7 -8 -10 -8 -6 -3 -2 -1
-2 -2 -2 -2 -3 -5 -5 -6 -5 -5 -6 -4 -3 -1 -2 -4 -4 -4 -3 -4 -6 -5 -7 -9 -6 -6 -6 -4 -5 -6 -5 -6 -6 -6 -7 -9 -10 -9 -11 -10 -9 -7 -8 -8 -6
-1 -1 -1 -3 -4 -5 -5 -6 -6 -5 -4 -4 -4 -2 -4 -3 -3 -4 -3 -4 -5 -4 -4 -4 -4 -6 -5 -6 -3 -4 -5 -3 -6 -6 -9 -11 -8 -11 -9 -10 -9 -7 -7 -7 -6
-1 -1 -1 -2 -2 -3 -3 -5 -5 -5 -4 -5 -2 -1 -3 -3 -4 -4 -4 -6 -5 -4 -4 -4 -3 -5 -5 -4 -4 -5 -4 -5 -5 -8 -9 -10 -8 -8 -7 -8 -8 -7 -7 -7 -6
-0 -1 -2 -2 -3 -3 -3 -3 -3 -4 -4 -3 -2 -2 -3 -4 -5 -6 -6 -8 -5 -4 -4 -4 -3 -4 -5 -5 -3 -3 -4 -6 -4 -6 -4 -5 -4 -5 -7 -8 -8 -8 -8 -8 -6
-1 -2 -2 -2 -3 -3 0 3 -1 -2 -3 -6 -5 -5 -6 -5 -5 -6 -8 -6 -6 -5 -3 -6 -3 -4 -5 -5 -4 -5 -4 -2 -3 -4 -2 -2 -2 -4 -6 -7 -6 -7 -6 -5 -4
-1 -2 -2 -3 -3 -3 2 4 4 3 -2 -5 -6 -7 -7 -6 -5 -6 -10 -6 -5 -5 -7 -4 -3 -6 -6 -4 -5 -4 -2 -1 -2 -3 -1 -1 -1 -6 -8 -7 -7 -6 -5 -5 -5
-2 -2 -3 -3 -2 -2 0 -3 1 -1 3 -6 -5 -5 -6 -6 -6 -5 -7 -6 -5 -4 -6 -3 -5 -7 -5 -4 -3 -4 -1 -1 -0 -1 -1 -1 -1 -6 -7 -5 -5 -5 -5 -6 -6
-3 -2 -2 -2 -1 2 3 -4 -1 -2 3 -3 -4 -5 -6 -5 -4 -6 -5 -4 -5 -5 -6 -5 -7 -7 -4 -4 -4 -2 -4 -1 0 1 2 -1 4 -3 -6 -6 -5 -5 -5 -5 -4
-5 -3 -2 -2 4 2 1 -4 -3 0 6 -3 -6 -6 -5 -7 -6 -6 -4 -5 -6 -5 -6 -4 -7 -6 -4 -4 -4 -2 -2 0 1 2 2 1 1 -2 -6 -5 -5 -4 -4 -4 -4
-7 -4 -3 -2 2 2 2 -6 -2 8 8 -2 -5 -4 -4 -5 -6 -4 -2 -3 -2 -1 -2 -5 -6 -5 -5 -3 -2 -2 1 2 2 2 4 1 0 -0 -2 -4 -3 -3 -4 -4 -3
-3 -3 -2 -2 -2 -1 -3 -2 8 5 0 -1 -2 -4 -3 -4 -3 -2 0 1 1 1 3 1 -2 -4 -2 -0 -1 0 3 5 4 5 5 2 2 -1 -3 -4 -4 -4 -4 -4 -3
-1 -1 -5 -0 1 -2 -2 6 5 4 -0 -4 -3 -4 -1 -4 -3 -0 -0 1 0 1 3 6 5 1 -2 -1 0 1 3 5 7 6 5 2 3 0 -4 -4 -5 -5 -3 -2 -1
0 -3 -0 -5 -2 -2 5 5 3 2 -2 -1 -2 -1 -0 -1 -4 -0 1 2 1 1 3 5 4 1 -1 -1 -1 2 4 2 4 2 4 4 3 -2 -3 -1 -2 -2 -1 -1 -1
5 0 -2 -5 -1 5 5 2 -2 -3 -2 0 1 0 1 2 1 1 1 1 1 1 0 3 6 3 2 1 0 0 0 4 4 5 8 6 4 3 1 2 0 -0 -1 -1 -1
7 3 -2 -2 3 5 3 0 -4 -3 -2 1 2 3 2 3 3 2 3 2 1 1 2 2 4 4 2 3 3 1 4 3 4 5 8 8 7 1 2 1 1 0 -1 -0 -0
7 1 -0 4 4 6 1 -2 -2 -1 -1 0 1 2 2 3 3 3 4 2 0 1 4 2 3 4 3 2 1 1 3 4 4 6 5 5 6 0 0 -0 -1 -0 0 0 0
4 3 3 4 2 2 0 1 1 1 1 2 1 1 1 3 3 3 3 1 0 2 2 1 2 4 3 1 2 4 3 3 3 2 5 4 4 -1 -1 -0 -0 1 1 1 1
2 4 1 2 5 1 1 2 1 1 0 1 1 1 2 3 2 1 3 3 2 2 1 1 3 3 4 3 4 5 4 3 3 2 5 5 4 1 -0 0 1 2 2 2 2
3 2 4 3 3 1 2 2 3 3 0 0 2 2 2 3 3 5 4 3 2 2 2 2 4 4 4 4 4 5 5 4 5 3 4 3 2 1 2 1 2 2 2 2 2
3 4 2 3 3 1 2 1 2 1 2 2 3 3 3 5 4 5 4 4 4 3 3 3 4 4 5 4 5 5 4 4 3 3 2 2 1 3 3 3 3 3 3 3 3
2 3 2 4 2 2 2 1 1 2 2 1 1 2 2 4 3 3 3 3 3 4 3 3 2 3 5 4 5 5 3 2 1 1 1 3 1 3 4 4 3 3 2 3 2

GFSSW_850_dewp_003.txt.gz
Dewpoint
-4 -5 -5 -5 -5 -5 -5 -5 -5 -4 -8 -8 -6 -3 -3 -9 -12 -14 -14 -13 -13 -8 -5 -6 -7 -8 -11 -10 -13 -16 -12 -9 -11 -13 -13 -13 -12 -11 -11 -5 -6 1 0 3 10
-3 -3 -3 -4 -4 -4 -4 -5 -5 -5 -8 -6 -4 -4 -3 -8 -13 -14 -12 -7 -4 -4 -5 -6 -8 -11 -12 -11 -12 -12 -11 -11 -12 -13 -13 -11 -12 -13 -12 -1 4 2 -0 3 8
-1 -2 -2 -3 -3 -4 -5 -5 -4 -7 -8 -5 -5 -3 -2 -5 -12 -6 -3 -4 -5 -6 -6 -5 -7 -9 -10 -9 -11 -10 -8 -10 -9 -11 -11 -9 -9 -10 -11 -6 3 1 1 4 9
-1 -2 -2 -3 -4 -6 -5 -4 -4 -8 -7 -6 -5 -2 -3 -4 -11 -4 -4 -4 -5 -7 -6 -6 -6 -6 -6 -5 -8 -8 -9 -9 -9 -9 -9 -8 -9 -9 -9 -10 -8 -4 -2 2 4
-2 -3 -4 -5 -6 -5 -4 -3 -5 -6 -7 -7 -5 -2 -4 -5 -4 -3 -4 -5 -5 -7 -7 -6 -6 -6 -4 -5 -6 -7 -8 -8 -7 -8 -8 -8 -8 -9 -9 -9 -8 -3 2 2 1
-2 -4 -5 -5 -4 -4 -3 -2 -3 -6 -8 -8 -3 -1 -3 -5 -4 -4 -4 -5 -5 -10 -10 -7 -7 -6 -6 -5 -6 -5 -6 -6 -6 -7 -7 -7 -7 -7 -9 -9 -8 -4 2 1 2
-2 -2 -2 -2 -3 -3 -3 -3 -4 -7 -6 -3 -2 -3 -4 -4 -4 -4 -4 -4 -7 -7 -5 -4 -4 -6 -6 -5 -5 -6 -5 -5 -6 -6 -6 -7 -10 -9 -10 -10 -9 -6 -1 3 3
-1 -2 -3 -4 -4 -3 -4 -4 -5 -4 -3 -3 -1 -2 -4 -4 -4 -4 -4 -4 -6 -5 -4 -4 -4 -5 -6 -6 -4 -6 -6 -5 -7 -6 -8 -11 -7 -11 -10 -7 -10 -8 -2 -2 -4
-1 -1 -2 -2 -2 -2 -3 -4 -5 -4 -4 -4 -2 -2 -4 -4 -4 -5 -7 -8 -8 -5 -4 -4 -4 -5 -6 -7 -5 -5 -4 -5 -6 -6 -6 -9 -8 -10 -8 -6 -8 -10 -8 -6 -6
-1 -1 -2 -2 -2 -2 -3 -5 -5 -4 -3 -2 -2 -3 -4 -4 -5 -6 -8 -7 -5 -5 -5 -5 -4 -6 -5 -5 -3 -3 -5 -5 -4 -5 -2 -3 -5 -5 -4 -7 -8 -8 -7 -6 -6
-1 -2 -2 -2 -2 2 1 -1 -2 -3 -4 -5 -5 -5 -6 -5 -5 -6 -11 -8 -6 -6 -4 -5 -4 -5 -6 -5 -5 -5 -4 -1 -3 -5 -1 -1 -1 -2 -5 -7 -7 -8 -8 -5 -5
-2 -2 -3 -3 -2 1 1 2 2 2 -2 -5 -6 -7 -6 -6 -6 -6 -9 -6 -6 -5 -7 -3 -4 -6 -6 -5 -5 -4 -2 -2 -2 -3 -1 -1 -1 -7 -8 -7 -6 -6 -4 -4 -5
-2 -3 -3 -3 -2 -5 -2 0 -2 1 -1 -6 -5 -5 -5 -6 -6 -5 -5 -5 -5 -5 -5 -3 -5 -7 -5 -4 -4 -4 -2 -2 -1 -1 -1 -1 -1 -6 -6 -5 -5 -5 -5 -4 -5
-2 -2 -3 -3 -3 -3 -4 -3 -1 0 -0 -2 -4 -5 -6 -6 -5 -6 -5 -5 -5 -6 -6 -4 -8 -5 -4 -4 -4 -2 -5 -2 -0 1 2 -1 2 -2 -6 -5 -5 -5 -5 -5 -4
-3 -3 -2 -4 -3 2 -4 -4 -2 3 3 -3 -6 -5 -5 -7 -7 -3 -3 -5 -4 -3 -5 -4 -7 -4 -3 -3 -3 -1 -1 -0 1 2 1 1 1 -0 -4 -5 -5 -4 -4 -4 -4
-5 -3 -2 -2 1 2 0 -5 -0 6 6 -2 -5 -4 -5 -5 -4 -2 -2 -3 -2 -1 -1 -1 -5 -5 -4 -3 -2 -1 1 1 2 2 4 1 1 -0 -2 -3 -3 -3 -4 -3 -3
-4 -4 -3 -3 -0 -2 -0 -3 6 4 -0 -2 -3 -4 -3 -4 -2 -1 0 1 2 -2 3 2 1 -1 -2 -0 -0 1 3 4 3 4 5 2 1 -1 -3 -3 -3 -3 -3 -4 -3
-2 -4 -4 -2 2 -2 -3 4 3 2 -0 -2 -3 -3 -2 -3 -2 0 0 2 1 1 4 5 3 2 -0 -1 1 1 3 4 5 5 5 2 3 0 -3 -4 -4 -3 -4 -2 -1
-2 -0 -2 -4 -1 -2 5 4 2 1 -2 -1 -1 -0 1 0 -1 0 2 2 1 1 3 5 4 1 0 1 -0 2 4 2 4 1 4 4 3 -2 -1 -0 -3 -1 -1 -0 0
1 -2 -2 -3 -1 5 3 1 -2 -3 -2 -0 1 1 1 3 2 1 2 1 1 2 1 3 6 2 2 1 0 1 0 4 4 4 7 6 5 3 1 2 0 -0 -1 -1 -1
7 -2 0 1 4 1 2 -1 -4 -2 -1 1 2 3 3 3 3 3 3 1 0 1 1 1 4 2 1 2 3 3 4 3 4 4 6 6 6 1 2 0 1 -0 -0 -0 -0
6 1 3 4 3 3 0 -2 -1 1 0 1 1 2 3 2 4 3 3 2 0 1 3 2 2 4 2 1 1 2 3 3 5 5 4 3 5 -0 -0 0 0 0 1 1 0
2 2 3 3 3 1 0 1 1 0 1 1 1 1 2 3 3 3 3 2 1 2 2 1 2 3 1 0 0 3 3 3 2 2 4 4 4 -1 -1 0 1 1 2 2 1
1 2 1 3 2 1 1 1 1 1 1 1 1 1 2 3 2 2 4 3 2 2 2 1 3 2 4 1 3 5 4 3 3 2 4 4 3 1 0 2 2 2 2 2 1
1 2 4 2 3 2 2 2 2 2 0 1 2 3 2 3 3 5 4 3 2 2 2 2 4 3 3 3 4 4 5 5 5 4 5 4 3 1 1 3 3 3 2 2 2
2 3 2 4 3 -0 1 1 3 1 1 2 3 3 3 4 3 5 4 3 4 2 3 3 3 4 4 4 5 5 4 4 4 4 3 3 2 -1 2 3 3 3 2 2 2
3 3 -0 4 0 1 2 1 1 2 1 1 2 2 1 3 3 3 3 3 2 3 3 3 2 3 2 4 3 3 2 3 2 0 0 2 1 2 3 3 3 3 3 2 1

GFSSW_850_dewp_006.txt.gz
Dewpoint
-5 -5 -6 -5 -6 -6 -6 -6 -7 -5 -6 -8 -4 -3 -3 -9 -12 -12 -6 -4 -4 -5 -6 -7 -7 -9 -10 -12 -15 -15 -11 -11 -13 -13 -13 -13 -12 -11 -9 -3 -3 3 1 3 7
-4 -4 -5 -5 -5 -5 -5 -6 -6 -4 -8 -5 -4 -3 -4 -10 -7 -3 -4 -5 -6 -6 -6 -8 -11 -11 -11 -11 -11 -12 -11 -11 -12 -13 -12 -11 -13 -13 -8 -1 2 0 1 4 8
-2 -3 -3 -3 -4 -4 -5 -6 -4 -7 -6 -4 -5 -3 -3 -9 -6 -4 -4 -5 -6 -6 -6 -8 -9 -8 -8 -9 -10 -9 -9 -10 -10 -11 -12 -9 -9 -11 -8 -4 -1 -4 1 5 9
-1 -2 -2 -3 -3 -4 -6 -5 -5 -8 -5 -5 -5 -2 -4 -5 -5 -4 -4 -5 -7 -7 -6 -7 -7 -6 -5 -6 -8 -8 -9 -9 -9 -9 -9 -9 -9 -9 -10 -10 -9 -6 -3 1 6
-1 -2 -3 -4 -5 -5 -5 -4 -8 -7 -6 -7 -3 -4 -6 -4 -4 -4 -5 -5 -7 -7 -7 -7 -7 -6 -5 -5 -6 -7 -8 -8 -8 -9 -9 -9 -8 -9 -9 -9 -9 -6 2 2 2
-2 -4 -5 -5 -5 -4 -4 -6 -7 -7 -8 -3 -1 -3 -5 -4 -4 -4 -5 -5 -7 -5 -5 -5 -4 -6 -5 -5 -6 -6 -6 -6 -6 -7 -7 -7 -7 -8 -9 -9 -9 -7 -1 2 1
-3 -4 -4 -3 -3 -3 -3 -4 -6 -7 -4 -2 -3 -4 -4 -4 -4 -4 -5 -5 -7 -5 -4 -4 -4 -7 -6 -5 -5 -5 -5 -7 -7 -6 -6 -7 -8 -9 -9 -11 -9 -8 -0 1 1
-1 -2 -3 -4 -4 -3 -3 -5 -5 -4 -3 -2 -1 -3 -4 -4 -4 -4 -7 -7 -7 -5 -4 -4 -4 -6 -7 -5 -6 -6 -6 -5 -7 -6 -8 -10 -6 -9 -11 -7 -6 -9 -4 2 1
-1 -2 -3 -3 -3 -3 -3 -4 -4 -3 -4 -3 -3 -3 -4 -4 -6 -6 -8 -10 -5 -5 -5 -5 -5 -6 -7 -8 -6 -5 -5 -5 -6 -5 -3 -7 -6 -9 -9 -6 -5 -6 -8 1 4
-1 -1 -1 -2 -2 -2 -3 -4 -4 -3 -3 -3 -3 -4 -5 -5 -6 -6 -11 -6 -5 -6 -6 -6 -7 -7 -5 -6 -6 -4 -5 -4 -4 -5 -2 -2 -4 -4 -5 -5 -5 -8 -8 -4 -3
-1 -2 -2 -2 1 0 -4 -4 -3 -5 -5 -6 -5 -6 -6 -6 -6 -6 -13 -6 -7 -8 -6 -5 -4 -5 -5 -5 -5 -5 -4 -2 -3 -4 -1 -1 -1 -5 -7 -7 -7 -8 -7 -6 -5
-2 -2 -3 -2 0 -0 -2 -1 -0 -0 -4 -5 -6 -7 -6 -6 -6 -6 -7 -6 -6 -5 -7 -4 -4 -6 -5 -5 -5 -5 -3 -4 -3 -3 -1 -1 -1 -7 -6 -5 -5 -4 -4 -4 -5
-2 -3 -3 -2 -3 -1 -0 -2 -1 -0 -5 -5 -5 -5 -6 -5 -5 -5 -5 -4 -6 -6 -4 -3 -5 -5 -5 -4 -2 -3 -4 -3 -1 -1 -2 -1 -3 -3 -6 -5 -5 -4 -4 -5 -5
-3 -3 -3 -2 -4 -2 -2 -2 -3 1 -1 -3 -5 -6 -6 -7 -6 -3 -3 -5 -5 -6 -5 -4 -7 -5 -2 -3 -3 -0 -5 -2 -1 1 2 -2 1 -1 -3 -5 -4 -5 -5 -5 -4
-2 -2 -3 -4 -5 -4 -3 -4 -2 4 0 -4 -5 -5 -5 -7 -6 -2 -2 -4 -2 -2 -4 -5 -6 -3 -1 -3 -3 -1 -1 0 0 2 1 1 0 -2 -3 -4 -4 -4 -5 -4 -4
-3 -3 -3 -0 -2 -1 -4 -5 1 4 3 -2 -4 -4 -5 -4 -2 -2 -2 -3 -2 -1 -0 -1 -4 -4 -3 -3 -1 -1 1 -0 1 2 4 2 1 -0 -1 -2 -3 -3 -4 -4 -4
-4 -3 -3 1 -0 -0 -1 -3 4 4 -0 -2 -3 -4 -4 -3 -1 -1 0 1 2 -3 3 2 1 0 -2 0 -0 1 1 2 2 3 4 2 2 -1 -2 -3 -3 -3 -4 -3 -3
-3 -4 -3 -3 -2 -1 -3 3 2 2 -0 -2 -3 -2 -2 -3 -0 1 1 2 1 1 4 5 2 1 -0 0 1 1 2 3 3 5 5 2 3 1 -3 -3 -3 -3 -2 -1 -0
-1 -3 -3 0 -0 -2 4 3 2 1 -2 -1 -1 -0 1 1 -0 1 2 2 1 1 3 5 3 1 1 1 0 2 4 2 4 1 3 4 2 -0 -1 0 -1 -0 -0 -1 -1
-2 -3 -2 -3 -1 5 3 2 -2 -1 -1 -1 1 1 1 3 2 1 2 1 1 2 1 3 5 2 1 0 0 1 0 3 4 4 6 5 4 3 2 1 0 -0 -1 -0 -0
5 -2 4 4 4 -1 2 -1 -3 0 -0 1 2 3 3 3 2 3 3 1 0 1 1 1 3 1 0 2 3 3 3 3 3 4 5 5 5 1 1 0 1 -0 1 1 1
3 -0 4 4 1 1 0 -2 -0 1 0 1 1 1 2 3 3 3 3 2 1 2 2 2 2 3 1 -0 1 2 2 2 3 3 3 3 4 -1 -0 0 -0 1 2 2 1
1 3 3 3 2 0 0 1 1 0 1 0 1 2 2 3 3 3 3 2 2 2 2 1 2 2 -1 -0 -0 3 3 2 1 2 4 3 3 -1 -1 0 1 2 2 2 1
1 3 2 -1 0 0 1 1 2 1 1 2 2 1 2 3 3 3 4 2 2 2 2 1 2 1 2 -0 1 4 4 3 3 5 4 4 3 1 0 0 1 2 2 2 1
-0 3 3 2 3 2 2 1 2 1 0 1 2 2 2 3 3 5 3 3 2 2 3 2 4 3 2 2 3 4 4 4 4 4 5 3 3 2 1 -0 2 2 2 2 2
1 2 2 4 2 0 1 1 3 2 1 2 3 2 2 3 2 4 4 3 3 2 3 2 2 4 4 3 4 4 4 4 4 4 4 4 4 1 -1 3 2 1 2 3 3
2 1 1 3 -0 1 1 1 1 1 1 1 2 1 0 3 2 2 3 3 2 2 2 3 2 3 2 3 3 1 -0 3 2 2 1 2 -0 -1 2 2 2 2 3 3 3

GFSSW_850_dewp_009.txt.gz
Dewpoint
-3 -5 -6 -6 -6 -6 -7 -8 -8 -6 -7 -7 -3 -3 -8 -11 -6 -4 -4 -5 -6 -6 -8 -9 -7 -8 -9 -15 -16 -14 -11 -11 -13 -13 -12 -13 -12 -11 -3 -1 -1 1 3 3 8
-2 -4 -5 -6 -6 -6 -7 -7 -6 -5 -8 -4 -4 -3 -7 -6 -4 -4 -4 -5 -7 -6 -8 -8 -10 -11 -11 -11 -11 -12 -10 -10 -13 -13 -11 -11 -12 -12 -7 -1 3 2 1 3 7
-1 -3 -4 -5 -5 -5 -6 -6 -5 -8 -5 -4 -4 -2 -7 -6 -5 -4 -5 -6 -7 -6 -8 -10 -9 -9 -8 -9 -9 -9 -8 -10 -10 -12 -11 -9 -9 -11 -6 -4 -4 -4 0 3 7
-1 -2 -3 -3 -4 -4 -5 -5 -7 -7 -5 -5 -3 -3 -6 -7 -2 -4 -5 -6 -7 -7 -8 -7 -8 -7 -5 -6 -9 -7 -9 -9 -9 -10 -10 -9 -9 -9 -8 -10 -9 -7 -2 0 7
-1 -1 -2 -2 -4 -5 -5 -5 -8 -5 -6 -3 -2 -5 -5 -4 -3 -4 -5 -6 -6 -6 -8 -8 -8 -6 -4 -6 -6 -7 -8 -8 -8 -10 -10 -9 -9 -9 -9 -10 -10 -5 -1 1 3
-1 -2 -3 -5 -5 -5 -4 -7 -6 -6 -4 -2 -2 -5 -5 -4 -4 -4 -5 -6 -6 -6 -6 -7 -6 -6 -5 -6 -5 -5 -6 -6 -6 -7 -7 -7 -7 -8 -9 -9 -9 -8 -2 1 1
-4 -4 -5 -5 -4 -3 -5 -6 -7 -5 -3 -2 -4 -5 -4 -4 -4 -4 -6 -7 -6 -5 -5 -5 -7 -7 -6 -5 -5 -6 -6 -7 -6 -6 -7 -8 -7 -8 -9 -9 -10 -8 -3 1 2
-2 -2 -2 -2 -2 -2 -5 -7 -6 -3 -3 -2 -3 -5 -4 -4 -6 -7 -10 -9 -5 -5 -5 -5 -6 -7 -7 -5 -7 -6 -6 -4 -6 -5 -6 -8 -4 -7 -10 -9 -7 -6 -7 2 4
-2 -2 -3 -3 -3 -4 -5 -5 -3 -4 -3 -3 -3 -4 -4 -5 -6 -7 -9 -7 -5 -5 -5 -5 -9 -7 -8 -5 -5 -4 -6 -4 -5 -4 -3 -3 -2 -5 -5 -5 -4 -5 -7 -4 3
-1 -1 -1 -2 -3 -4 -4 -4 -4 -3 -4 -4 -4 -6 -6 -6 -6 -9 -6 -6 -6 -6 -8 -7 -9 -5 -4 -7 -6 -3 -5 -4 -3 -4 -2 -1 -2 -3 -6 -6 -5 -7 -8 -7 2
-1 -2 -1 2 -2 -4 -3 -2 -4 -6 -6 -6 -6 -6 -6 -6 -5 -8 -6 -7 -9 -8 -3 -6 -4 -3 -4 -4 -5 -4 -4 -2 -3 -3 -1 -0 -1 -6 -5 -5 -6 -6 -7 -5 -4
-2 -2 -1 2 -0 -1 -3 -3 -3 -4 -5 -5 -6 -6 -6 -5 -5 -5 -6 -7 -7 -4 -6 -3 -3 -6 -5 -5 -5 -4 -3 -4 -3 -3 -1 -1 -3 -5 -5 -4 -3 -3 -4 -4 -5
-2 -2 -1 -3 -0 -2 -4 -3 -1 -2 -5 -5 -5 -6 -6 -4 -2 -3 -4 -4 -6 -3 -3 -2 -5 -5 -5 -2 -1 -1 -3 -2 -1 -2 -1 -2 -2 -3 -6 -5 -4 -4 -4 -5 -5
-3 -3 -2 -3 -1 -1 -3 -2 -1 -0 0 -3 -5 -5 -6 -6 -5 -2 -4 -5 -4 -4 -3 -5 -6 -3 -1 -1 -2 0 -3 0 0 1 2 -1 0 -1 -3 -4 -4 -4 -4 -4 -4
-3 -3 -3 -3 -3 -2 -3 -3 -2 4 1 -5 -4 -5 -5 -5 -5 -3 -3 -3 -1 -1 -3 -5 -3 -1 0 -2 -2 1 0 1 1 2 2 2 0 -1 -3 -3 -4 -4 -5 -4 -4
-2 -2 -3 -2 -4 -3 -5 -3 3 4 1 -2 -4 -4 -3 -2 -1 -2 -2 -3 -2 -0 0 -1 -2 -2 -1 -3 -1 -0 1 -0 1 2 4 2 1 1 -0 -2 -3 -3 -3 -3 -3
-3 -2 -3 -0 -1 -2 -4 -1 4 4 -1 -2 -3 -4 -3 -1 -0 -0 1 2 2 -2 4 1 1 0 -1 0 0 1 0 3 5 6 5 2 2 0 -1 -3 -3 -2 -2 -2 -1
-4 -3 -3 1 -3 -2 -3 3 3 2 -0 -2 -3 -1 -1 -1 0 1 1 2 2 1 4 4 2 1 1 1 1 3 2 5 4 6 5 2 3 2 -0 -1 -1 -0 -0 -0 -0
-3 -3 -3 -3 -2 -3 3 5 2 1 -2 -2 -1 0 1 1 0 1 2 2 2 2 4 5 3 1 1 1 0 2 5 2 4 2 6 3 2 0 -1 -0 0 -0 -0 -0 -0
-1 -4 -2 0 -2 2 4 1 -2 -1 -1 -1 1 0 2 3 2 2 2 1 1 2 1 4 4 1 1 0 1 1 1 4 5 7 6 3 4 1 1 1 0 0 1 1 0
-1 -0 4 1 4 -1 3 -0 -1 1 0 1 2 3 3 3 2 3 2 1 0 1 1 1 3 1 0 3 3 3 3 3 3 5 7 8 4 1 1 1 0 0 1 1 1
2 3 4 5 -0 0 1 -2 0 1 1 1 1 2 3 3 4 4 4 2 1 1 3 2 3 3 1 1 1 2 2 1 4 3 5 5 4 -1 0 0 0 1 1 2 1
2 3 3 2 3 2 1 1 1 1 1 1 2 2 2 3 4 3 3 3 2 2 3 1 3 2 -3 -0 -0 3 3 2 2 3 5 7 3 -1 0 -0 0 1 1 1 0
1 5 1 -1 -0 1 1 1 2 1 1 2 2 1 2 3 4 4 4 2 2 2 1 1 2 1 1 -2 0 3 4 3 4 6 4 4 2 1 -0 -0 0 1 2 1 1
1 3 2 3 3 1 1 1 2 1 1 1 2 2 2 3 3 5 4 2 2 3 3 3 5 3 3 2 3 3 3 3 4 4 5 3 3 2 1 1 0 2 1 1 2
2 2 2 3 1 1 1 2 3 2 1 2 3 3 2 3 1 3 3 3 2 2 3 2 4 4 4 3 3 4 3 3 4 4 4 4 4 1 1 1 3 2 1 2 3
2 2 1 2 -0 1 1 2 2 1 1 1 2 2 1 2 1 2 2 2 2 2 3 3 4 4 3 3 3 3 -0 2 2 2 2 2 -0 -0 1 2 2 1 2 3 1

GFSSW_850_dewp_012.txt.gz
Dewpoint
-3 -4 -5 -6 -7 -7 -8 -7 -8 -6 -5 -6 -3 -4 -10 -10 -4 -4 -4 -5 -6 -7 -9 -9 -7 -7 -12 -13 -13 -14 -15 -14 -14 -14 -13 -13 -14 -11 -3 -3 -1 1 2 4 9
-2 -3 -4 -6 -6 -7 -7 -7 -7 -5 -7 -4 -4 -5 -8 -4 -4 -4 -5 -6 -7 -7 -9 -7 -7 -10 -11 -11 -11 -14 -14 -13 -14 -14 -14 -13 -14 -12 -8 -6 -3 0 5 7 11
-1 -2 -4 -6 -6 -6 -6 -6 -6 -6 -5 -4 -3 -8 -5 -4 -4 -4 -5 -7 -7 -8 -9 -10 -10 -8 -10 -9 -9 -12 -12 -12 -13 -12 -14 -14 -13 -12 -13 -10 -9 -9 1 7 10
-0 -1 -3 -4 -5 -6 -5 -6 -5 -6 -4 -4 -3 -8 -8 -7 -5 -4 -5 -6 -7 -8 -10 -9 -7 -9 -11 -11 -10 -11 -11 -12 -12 -11 -12 -13 -11 -11 -11 -13 -8 -6 -1 5 8
-0 -1 -3 -4 -5 -5 -6 -5 -7 -5 -5 -2 -4 -6 -4 -4 -4 -4 -5 -6 -6 -7 -6 -6 -9 -8 -11 -10 -10 -10 -9 -9 -10 -10 -11 -9 -10 -8 -9 -11 -9 -2 2 3 4
-1 -2 -2 -3 -4 -5 -5 -7 -5 -6 -3 -2 -5 -5 -3 -5 -4 -5 -5 -7 -6 -5 -7 -7 -6 -7 -6 -6 -8 -6 -7 -6 -7 -7 -6 -7 -7 -7 -9 -8 -8 -3 0 2 3
-2 -3 -4 -5 -5 -4 -6 -6 -6 -3 -2 -3 -5 -5 -4 -4 -5 -7 -6 -7 -7 -6 -5 -8 -7 -6 -5 -4 -4 -5 -5 -6 -6 -6 -7 -8 -7 -9 -9 -9 -9 -6 -3 1 2
-4 -5 -5 -4 -4 -6 -6 -7 -4 -3 -2 -3 -4 -5 -4 -5 -6 -9 -9 -8 -6 -5 -5 -7 -6 -5 -5 -5 -7 -7 -7 -6 -5 -6 -4 -6 -6 -7 -5 -6 -8 -5 -5 0 2
-2 -2 -2 -2 -3 -6 -7 -5 -3 -3 -2 -3 -4 -3 -5 -6 -5 -10 -10 -6 -5 -5 -6 -8 -7 -5 -6 -6 -7 -8 -9 -7 -5 -5 -4 -5 -5 -5 -6 -6 -5 -7 -5 -3 0
-1 -2 -2 -3 -4 -6 -5 -3 -3 -2 -3 -3 -5 -5 -6 -6 -7 -10 -6 -5 -5 -6 -5 -5 -6 -7 -8 -11 -10 -7 -8 -7 -6 -6 -5 -5 -4 -6 -6 -6 -4 -4 -5 -5 -0
-1 -1 -2 -3 -3 -4 -4 -3 -3 -3 -4 -4 -5 -5 -6 -5 -5 -6 -6 -8 -7 -5 -6 -5 -6 -4 -4 -4 -5 -6 -6 -5 -6 -4 -2 -2 -4 -6 -5 -5 -5 -5 -5 -3 -0
-1 1 2 -3 -4 -3 -2 1 -4 -4 -5 -6 -6 -5 -4 -4 -5 -4 -6 -6 -6 -6 -5 -6 -3 -5 -4 -5 -5 -4 -4 -4 -4 -3 -1 -2 -4 -5 -5 -4 -4 -4 -4 -3 -3
1 -1 0 1 -0 -2 -3 -3 -6 -5 -5 -4 -5 -5 -5 -3 -2 -2 -4 -5 -6 -5 -5 -5 -5 -5 -3 -2 -2 -2 -3 -0 -1 -2 -2 -1 -2 -4 -5 -4 -4 -4 -4 -4 -3
-1 -1 -2 0 -0 -4 -3 -2 -4 -3 -4 -4 -5 -5 -5 -5 -3 -2 -4 -4 -4 -4 -5 -4 -3 -2 -2 -1 -1 -1 -2 0 -0 -0 -2 -1 -1 -2 -4 -4 -4 -4 -3 -3 -3
-3 -2 -2 -2 -1 0 -3 -2 0 3 1 -4 -5 -4 -2 -4 -3 -2 -3 -3 -3 -3 -3 -3 -2 -1 -1 -1 -0 1 1 1 1 1 0 0 -1 -0 -3 -3 -4 -4 -3 -2 -1
-3 -3 -3 -3 -2 -2 -4 -3 4 5 2 -2 -4 -3 -2 -2 -2 -2 -1 -2 -2 -2 -3 -1 -2 -1 -0 -1 -1 -0 1 1 1 2 4 2 1 1 -0 -1 -3 -3 -2 -0 0
-2 -3 -3 -3 -1 -4 -5 2 2 3 -1 -2 -3 -3 -1 -0 -1 -1 0 2 0 0 1 -1 -0 -1 0 -1 0 -0 1 3 6 6 5 1 1 2 -1 -2 -1 -1 0 1 2
-3 -2 -2 -3 -2 -3 -2 4 2 1 -0 -3 -3 -2 -1 -0 0 0 -0 1 0 -0 0 1 3 1 1 1 2 2 2 5 5 5 3 1 1 2 -1 -1 -0 -0 0 0 1
-3 -3 -3 -0 -3 -2 4 6 4 -0 -2 -2 -2 -1 0 0 -0 1 2 1 2 1 2 2 2 0 0 0 1 2 4 2 5 5 7 1 1 0 -1 -1 -1 -0 0 1 1
-2 -2 -2 -2 -2 -1 5 1 -0 -2 -1 -2 -0 -0 1 1 1 1 2 1 1 1 1 3 3 0 0 0 1 1 1 3 3 8 2 -3 -2 -2 1 0 -1 -1 -0 0 1
-2 1 1 -1 2 2 5 2 0 1 1 0 1 2 2 2 1 2 2 1 1 1 0 -0 2 1 1 2 2 2 3 2 2 4 4 3 -2 0 -0 -0 -1 -0 -0 1 1
0 3 4 4 3 1 2 -0 0 1 1 1 2 2 2 3 3 3 3 2 2 2 2 2 3 0 -1 1 1 1 2 1 3 2 4 5 1 -2 -1 -1 0 -0 1 1 2
4 5 4 2 7 7 2 1 1 1 1 1 3 2 2 3 5 3 3 3 3 2 2 2 2 -1 -0 2 1 2 1 2 2 4 5 7 2 -3 -2 -1 -2 -1 0 1 1
3 9 3 1 2 1 2 2 2 1 2 2 2 1 3 3 3 5 4 3 3 3 1 2 2 1 -3 -3 -1 -0 -1 0 2 5 3 3 1 -1 -3 -3 -2 -1 1 1 1
2 6 3 7 4 2 2 2 2 2 2 2 2 2 3 5 4 4 3 3 2 3 3 3 2 2 1 -0 -0 1 0 -1 1 2 4 2 0 -1 -2 -2 -1 1 1 1 1
5 5 4 3 3 2 3 2 2 2 1 2 2 2 0 1 -1 3 0 0 -1 3 2 2 3 4 3 1 0 2 -0 -1 1 1 2 1 2 -2 -2 0 1 1 1 2 2
1 1 4 2 3 4 4 2 2 2 2 2 1 2 4 1 1 3 3 3 2 2 3 4 5 5 7 3 3 6 2 -1 -0 0 1 2 -0 -1 1 1 2 2 2 2 2

GFSSW_850_dewp_015.txt.gz
Dewpoint
-2 -3 -4 -5 -6 -7 -8 -8 -8 -8 -5 -8 -4 -6 -11 -8 -4 -4 -2 -5 -5 -7 -9 -6 -6 -5 -8 -13 -13 -15 -13 -12 -13 -13 -13 -15 -14 -14 -9 -6 -5 -4 -1 3 7
-1 -1 -3 -5 -6 -7 -7 -7 -7 -7 -7 -4 -4 -9 -7 -4 -4 -5 -6 -7 -6 -9 -9 -4 -7 -9 -13 -13 -14 -14 -14 -14 -16 -15 -15 -16 -16 -14 -10 -9 -7 -2 -1 5 7
-0 -1 -3 -4 -6 -7 -7 -7 -7 -5 -6 -4 -5 -8 -4 -4 -0 -6 -7 -6 -7 -10 -5 -5 -10 -11 -12 -14 -14 -15 -13 -14 -16 -16 -17 -17 -17 -15 -14 -10 -8 -6 -3 4 6
-0 -1 -2 -4 -6 -6 -6 -6 -6 -7 -4 -3 -5 -6 -5 -6 -4 -5 -7 -6 -8 -11 -5 -8 -9 -12 -13 -13 -14 -14 -15 -16 -17 -15 -16 -16 -14 -14 -14 -13 -12 -9 -2 3 5
-0 -1 -3 -4 -5 -5 -5 -6 -6 -5 -5 -3 -6 -8 -6 -1 -6 -5 -6 -5 -6 -6 -8 -9 -10 -13 -14 -15 -16 -14 -14 -16 -15 -14 -14 -13 -12 -10 -13 -13 -10 -6 -1 2 4
-0 -1 -2 -3 -4 -5 -5 -5 -5 -5 -3 -3 -5 -8 -4 -4 -5 -6 -6 -7 -6 -7 -10 -10 -11 -11 -14 -14 -11 -10 -9 -9 -10 -9 -10 -9 -10 -9 -10 -12 -12 -6 -3 -1 1
-1 -2 -2 -3 -4 -5 -5 -6 -5 -3 -2 -4 -5 -6 -0 -4 -5 -7 -7 -7 -6 -5 -8 -7 -9 -11 -10 -8 -8 -8 -7 -7 -7 -7 -8 -8 -8 -9 -9 -9 -11 -10 -6 -2 -1
-3 -3 -4 -5 -5 -5 -6 -6 -4 -3 -3 -3 -6 -5 -3 -5 -5 -8 -8 -8 -7 -4 -5 -6 -7 -6 -7 -6 -8 -8 -7 -5 -7 -7 -6 -7 -5 -9 -8 -8 -9 -8 -8 -5 -2
-4 -5 -5 -4 -5 -6 -6 -5 -3 -3 -2 -4 -5 -1 -6 -7 -6 -7 -7 -8 -6 -4 -5 -7 -6 -8 -5 -7 -7 -8 -6 -7 -5 -7 -6 -7 -6 -7 -6 -7 -7 -8 -7 -7 -4
-2 -3 -3 -4 -6 -5 -6 -3 -3 -2 -3 -4 -1 -3 -7 -7 -7 -7 -7 -5 -5 -4 -5 -6 -7 -7 -9 -8 -6 -8 -10 -10 -9 -6 -9 -8 -7 -7 -7 -6 -6 -7 -7 -7 -5
-2 -2 -2 -3 -5 -6 -3 -3 -1 -1 -2 -4 -7 -6 -8 -8 -9 -7 -6 -5 -5 -5 -5 -7 -6 -5 -5 -7 -8 -9 -9 -8 -8 -6 -6 -6 -6 -7 -5 -6 -4 -4 -5 -5 -4
-1 -1 -2 -4 -4 -4 -3 2 2 -3 -5 -5 -5 -5 -5 -6 -8 -6 -5 -5 -6 -6 -7 -8 -4 -5 -6 -6 -7 -6 -6 -6 -5 -5 -5 -5 -6 -6 -5 -4 -4 -4 -3 -2 -1
2 2 -2 -3 -3 -3 4 4 -5 -4 -6 -5 -5 -6 -5 -5 -4 -4 -5 -7 -8 -8 -10 -5 -5 -6 -5 -5 -4 -4 -4 -1 -2 -4 -5 -4 -4 -5 -5 -5 -4 -4 -4 -3 -3
0 1 1 0 0 3 4 -5 -6 -3 -3 -6 -7 -5 -6 -5 -4 -3 -2 -5 -7 -8 -8 -5 -4 -4 -4 -2 -2 -2 -2 -1 -2 -2 -2 -4 -1 -3 -4 -4 -4 -3 -3 -3 -3
-1 -1 -0 1 2 -0 1 -4 -6 1 2 -5 -5 -4 -5 -4 -4 -3 -2 -5 -6 -5 -4 -3 -3 -2 -2 -1 -2 -1 -1 -1 -1 -1 -2 -3 -4 -1 -5 -3 -3 -3 -2 -1 -1
-2 -2 -2 -1 3 1 -3 -2 -3 6 2 -3 -5 -4 -3 -3 -3 -3 -3 -3 -3 -5 -5 -3 -3 -2 -1 -2 -2 -1 0 -0 0 0 2 0 -1 0 -1 -2 -3 -3 -1 -0 -0
-3 -2 -1 0 3 -3 -4 1 -1 5 -3 -3 -3 -4 -3 -2 -1 -2 -1 -0 -1 1 0 -2 -1 -1 -1 -0 -0 -1 0 4 5 5 5 -0 -2 2 -1 -2 -2 -2 -0 1 1
-2 -2 -3 -3 -2 -4 -3 1 5 -1 -3 -5 -4 -3 -1 -2 -1 -1 -1 -0 -1 -2 -2 -0 4 -0 -1 1 1 0 1 6 5 4 2 -1 -2 1 -1 -1 -1 -1 -0 0 1
-2 -2 1 -3 -3 -4 2 6 2 -2 -4 -3 -4 -2 -1 -1 -1 -0 1 0 0 0 1 1 2 -1 -0 -1 -0 1 2 0 5 5 6 -2 -1 -0 -1 -1 -1 -1 -1 -0 -0
2 1 4 -1 -4 -1 5 3 0 -2 -4 -4 -2 -1 -0 -1 -0 0 1 0 0 -1 -1 0 3 -1 -1 -1 -0 1 -1 4 2 7 2 -4 -6 -0 1 -0 -1 -2 -1 -1 -0
3 0 3 -3 -3 3 6 2 -1 -1 -1 -1 -1 -0 -0 1 -0 1 1 0 -0 -0 -2 -2 -1 1 -1 0 0 1 2 1 -1 2 4 1 -2 -3 -2 -2 -1 -2 -2 -1 -0
3 2 -0 -1 1 3 3 -0 -1 -0 1 0 -0 -0 1 1 2 2 2 2 1 0 1 0 0 1 -3 -1 0 -0 0 -0 2 1 1 4 2 -3 -3 -3 -3 -2 -2 0 0
1 4 2 3 8 8 2 1 0 0 -0 0 2 1 1 2 4 2 3 3 2 1 2 1 1 0 -2 1 0 0 -1 -1 0 2 2 7 2 -4 -3 -3 -3 -3 -2 -0 0
3 8 3 4 3 1 2 1 2 1 1 1 2 1 2 2 2 4 4 3 3 2 1 2 -0 -0 0 -3 -4 -2 -4 -4 -1 4 3 2 -0 -3 -3 -2 -3 -2 -1 1 1
4 5 4 6 4 1 1 1 1 2 1 0 1 1 2 4 3 3 2 3 2 2 2 1 2 1 -1 -3 -4 -3 -2 -3 -3 -2 2 1 -0 -2 -2 -2 -1 -0 0 0 1
2 3 3 4 2 2 2 1 0 1 0 1 1 1 0 3 -1 2 -0 -2 -2 1 0 0 4 3 2 -1 -3 -1 -3 -3 -3 -2 -1 -1 -1 -2 -2 -1 -0 0 1 1 2
1 3 4 3 3 3 3 1 0 1 2 -1 0 -0 3 -0 1 1 2 1 -0 1 2 3 4 3 6 3 3 7 2 -3 -3 -3 -1 2 -0 -2 -1 1 1 2 2 2 2

GFSSW_850_dewp_018.txt.gz
Dewpoint
-1 -1 -2 -4 -5 -6 -7 -9 -8 -9 -10 -6 -8 -5 -9 -10 -5 -5 -1 -3 -3 -7 -10 -9 -4 -4 -6 -10 -13 -13 -11 -7 -9 -9 -12 -14 -15 -14 -8 -6 -6 -1 1 5 6
-1 -1 -2 -3 -4 -6 -7 -8 -8 -9 -7 -7 -4 -6 -10 -4 -5 1 -3 -6 -7 -11 -13 -5 -5 -6 -8 -12 -13 -14 -10 -13 -16 -15 -14 -16 -15 -14 -9 -9 -5 -1 5 6 6
-1 -1 -1 -2 -4 -6 -7 -7 -8 -9 -6 -4 -4 -8 -5 -4 -3 -3 -7 -6 -10 -13 -5 -4 -9 -9 -11 -13 -14 -15 -12 -15 -16 -15 -16 -17 -16 -13 -12 -10 -6 -4 4 6 6
-0 -0 -1 -2 -4 -6 -7 -7 -8 -6 -6 -4 -5 -6 -5 -5 -1 -6 -7 -7 -16 -13 -3 -6 -10 -10 -13 -13 -15 -14 -16 -18 -17 -16 -18 -18 -17 -16 -15 -11 -9 -5 -1 5 5
-0 -0 -1 -2 -5 -6 -6 -7 -7 -7 -4 -3 -5 -6 -5 -1 -5 -7 -6 -6 -9 -8 -5 -9 -10 -12 -14 -15 -16 -15 -17 -17 -17 -16 -14 -14 -13 -12 -14 -12 -11 -5 -1 3 4
-0 -0 -1 -3 -4 -5 -6 -7 -6 -4 -4 -3 -6 -6 -6 0 -6 -7 -6 -7 -7 -9 -10 -10 -11 -13 -16 -16 -14 -14 -14 -14 -13 -13 -13 -13 -11 -10 -12 -13 -11 -6 -1 1 3
-1 -1 -2 -3 -4 -5 -6 -6 -5 -5 -2 -4 -7 -7 -3 -2 -7 -7 -7 -7 -7 -6 -7 -8 -10 -13 -12 -10 -10 -10 -9 -9 -9 -10 -10 -10 -8 -9 -10 -11 -12 -8 -5 -2 -0
-1 -2 -2 -3 -4 -6 -6 -5 -5 -3 -3 -4 -8 -10 2 -4 -5 -8 -9 -9 -8 -6 -6 -8 -8 -7 -7 -8 -11 -9 -8 -5 -8 -8 -8 -8 -5 -11 -9 -10 -10 -10 -9 -5 -2
-4 -3 -4 -4 -5 -6 -6 -5 -3 -2 -2 -5 -7 -5 -0 -7 -8 -8 -8 -9 -8 -6 -5 -7 -6 -9 -9 -9 -7 -7 -6 -5 -5 -9 -7 -8 -6 -9 -8 -7 -7 -8 -8 -8 -5
-4 -5 -5 -4 -5 -6 -5 -3 -3 -2 -3 -4 -0 2 -4 -8 -7 -9 -8 -7 -6 -5 -7 -7 -7 -7 -8 -6 -3 -5 -9 -11 -9 -7 -10 -9 -8 -7 -7 -7 -7 -8 -8 -7 -7
-2 -3 -3 -5 -5 -5 -4 -3 -1 0 1 -4 -7 -6 -9 -10 -11 -8 -8 -7 -5 -5 -4 -8 -6 -4 -5 -7 -9 -10 -10 -10 -7 -6 -7 -9 -8 -8 -7 -6 -6 -6 -6 -6 1
-1 -2 -3 -3 -4 -4 -2 4 2 -2 -3 -5 -6 -6 -7 -7 -9 -8 -7 -5 -6 -5 -7 -9 -5 -6 -7 -8 -8 -9 -7 -7 -6 -6 -6 -8 -6 -6 -6 -4 -5 -5 -5 -0 0
-0 -2 -3 -4 -4 -3 2 6 4 -3 -6 -6 -6 -7 -5 -5 -6 -7 -5 -7 -7 -6 -10 -3 -5 -8 -7 -6 -5 -6 -5 -1 -2 -5 -6 -5 -4 -4 -5 -5 -4 -3 -2 -1 -1
2 -1 -3 -3 -2 1 5 1 3 -2 -3 -7 -7 -7 -6 -6 -5 -5 -5 -5 -8 -9 -10 -4 -5 -6 -6 -4 -3 -3 -2 -1 -3 -2 -2 -5 -2 -3 -4 -4 -4 -3 -2 -2 -2
0 2 1 0 6 3 5 -4 -5 2 4 -6 -7 -5 -7 -4 -5 -5 -6 -7 -6 -7 -6 -3 -4 -3 -2 -1 -3 -1 -2 -2 -2 -1 -2 -4 -1 -1 -4 -2 -2 -2 -1 -1 0
-2 -0 0 1 6 5 1 -5 -6 9 6 -4 -6 -5 -6 -5 -4 -5 -6 -4 -5 -7 -5 -3 -4 -2 -2 -3 -3 -3 -0 -1 -1 0 6 -2 -1 3 -1 -2 -2 -2 -1 -0 -0
-2 -2 3 4 7 -2 -4 -1 1 6 -5 -3 -4 -5 -4 -3 -3 -3 -3 -2 -1 -0 -0 -2 -2 -2 -3 -0 -1 -1 0 7 10 9 9 1 -3 3 -1 -2 -3 -2 0 1 1
-3 -2 -2 2 3 -3 -2 3 6 -2 -4 -7 -5 -4 -2 -3 -2 -3 -2 -1 -2 0 -1 -0 4 -1 -2 -0 -0 -0 0 9 8 9 5 -2 -2 2 -1 -1 -1 -0 0 0 1
-3 -3 0 -3 -3 -4 5 7 3 -3 -4 -4 -4 -2 -1 -2 -2 -1 0 -0 -0 1 3 0 2 -2 -2 -2 -2 1 3 -2 4 6 8 -1 1 0 -1 -1 -1 -1 -1 -0 -0
-1 0 3 -2 -4 -4 7 7 1 -3 -6 -5 -3 -3 -1 -2 -1 -1 -0 -1 -1 -2 -3 -1 4 -2 -2 -2 -0 -1 -3 4 7 8 4 -2 -3 3 1 0 -1 -2 -2 -1 -1
3 1 4 -3 -4 3 7 5 -1 -3 -2 -4 -3 -2 -2 -1 -2 -0 0 -0 -1 -1 -2 -2 -1 1 -2 -0 -1 0 1 0 -1 3 6 5 -0 -4 -3 -2 -1 -2 -3 -1 -0
3 3 3 -3 1 1 5 0 -2 -1 0 -0 -1 -2 -1 -1 0 1 2 2 0 -1 1 -2 -0 6 -2 -2 -3 -2 -1 -1 8 3 7 6 3 -4 -3 -3 -2 -1 -1 0 0
2 6 -1 -3 7 10 2 0 -1 -1 -2 -1 1 -0 0 1 3 1 4 2 2 2 4 0 3 5 1 2 -1 -2 -2 -3 0 5 4 6 3 -4 -2 0 -0 -2 -1 1 1
5 7 2 4 5 3 3 2 2 1 1 0 0 0 1 2 1 3 4 3 3 2 -0 2 -1 -0 4 -2 -4 -3 -5 -5 -3 7 5 4 1 -2 -2 -1 -1 -1 -0 0 0
5 5 1 5 4 2 1 -0 2 2 0 0 0 -0 1 3 2 3 3 3 2 0 1 1 2 1 -0 -3 -4 -4 -4 -4 -3 -2 2 1 -2 -2 -1 -1 -0 1 1 1 1
6 3 3 3 1 1 2 1 0 -1 1 0 1 -0 1 4 1 3 1 0 -0 0 0 1 5 5 4 -2 -3 -1 -2 -2 -3 -3 -3 -2 -1 -3 0 2 2 2 2 1 2
4 2 4 4 3 4 4 1 -0 1 2 -0 -1 1 5 2 2 1 1 -0 -1 1 1 3 7 6 7 4 4 8 3 -2 -2 -2 -2 2 0 1 1 1 1 1 2 2 2

GFSSW_850_dewp_021.txt.gz
Dewpoint
-2 -2 -2 -2 -3 -5 -7 -8 -9 -11 -11 -12 -6 -9 -6 -11 -10 -8 -6 -1 -2 -3 -10 -11 -7 -6 -5 -5 -6 -7 -10 -8 -10 -8 -10 -11 -14 -12 -5 -5 1 2 6 6 4
-2 -2 -1 -2 -3 -5 -7 -8 -10 -10 -11 -8 -8 -5 -8 -9 -6 -5 0 -0 -7 -8 -13 -12 -6 -6 -5 -7 -7 -11 -10 -13 -15 -13 -14 -15 -14 -14 -8 -3 5 6 6 6 4
-1 -1 -1 -1 -2 -5 -7 -8 -9 -10 -10 -6 -6 -5 -7 -5 -4 -3 -5 -6 -8 -14 -12 -4 -4 -4 -6 -7 -11 -14 -12 -16 -15 -15 -16 -16 -14 -12 -9 -7 4 6 6 5 5
-1 -1 -1 -1 -3 -5 -7 -8 -9 -9 -6 -6 -4 -6 -5 -4 4 -6 -7 -8 -16 -15 -8 -4 -5 -7 -9 -9 -14 -13 -17 -17 -16 -15 -17 -17 -16 -15 -11 -8 -3 6 6 6 5
-0 -0 -1 -2 -3 -6 -7 -8 -8 -7 -7 -4 -4 -5 -4 -4 -1 -7 -6 -7 -13 -10 -6 -6 -5 -10 -8 -11 -15 -15 -16 -17 -17 -14 -14 -15 -14 -13 -11 -9 -4 5 6 5 5
-0 -0 -1 -2 -4 -6 -7 -7 -8 -6 -4 -4 -4 -5 -5 2 -6 -7 -7 -7 -7 -6 -5 -6 -8 -11 -13 -10 -13 -16 -17 -16 -16 -14 -13 -13 -10 -10 -11 -10 -4 3 5 4 4
-1 -1 -2 -3 -5 -6 -7 -8 -6 -4 -4 -3 -5 -6 -5 -4 -5 -7 -7 -8 -7 -6 -6 -9 -9 -10 -10 -9 -11 -13 -10 -11 -11 -11 -10 -10 -8 -9 -13 -12 -6 -2 3 2 3
-1 -1 -3 -4 -5 -7 -7 -6 -5 -4 -2 -3 -6 -6 -7 -3 -5 -8 -9 -9 -9 -7 -6 -8 -9 -8 -7 -11 -11 -9 -8 -5 -8 -9 -9 -9 -6 -9 -11 -12 -8 -7 -4 1 2
-3 -3 -3 -5 -5 -6 -6 -5 -4 -3 -2 -4 -5 -5 0 -5 -9 -8 -9 -8 -9 -7 -6 -9 -8 -7 -9 -7 -6 -6 -5 -4 -6 -7 -7 -7 -6 -9 -9 -10 -10 -8 -8 -5 -1
-4 -4 -4 -5 -6 -5 -5 -4 -3 -2 -2 -4 -2 4 -2 -6 -7 -9 -9 -7 -7 -5 -7 -7 -7 -5 -6 -5 -2 -4 -6 -3 -4 -7 -9 -9 -7 -7 -8 -7 -6 -7 -8 -5 1
-3 -5 -5 -5 -5 -5 -4 -2 -1 -1 -1 -5 -4 0 -8 -9 -10 -10 -8 -7 -5 -5 -3 -6 -3 -2 -5 -7 -8 -7 -6 -3 -5 -6 -7 -6 -9 -5 -5 -6 -6 -3 1 3 3
-1 -3 -4 -5 -5 -4 -3 2 2 4 -1 -4 -3 -5 -8 -8 -9 -8 -8 -6 -5 -2 -4 -4 -2 -6 -8 -8 -6 -7 -4 -1 -4 -5 -7 -6 -5 -4 -4 -4 -2 1 2 3 3
-1 -2 -4 -4 -5 -4 -3 6 5 2 -2 -6 -6 -8 -6 -5 -6 -7 -6 -4 -5 -3 -3 -2 -5 -8 -7 -2 -2 -1 0 -1 -1 -3 -4 -4 -4 -3 -4 -3 -1 0 1 1 2
0 -2 -4 -5 -4 -3 -1 5 5 -4 -1 -5 -6 -8 -6 -6 -5 -6 -6 -4 -7 -3 -2 -3 -6 -5 -4 -1 -2 2 0 -0 -1 -1 1 -5 -0 -2 -3 -1 -2 -1 -1 0 2
3 0 -3 -2 6 5 5 3 -4 -2 4 -5 -5 -8 -6 -4 -5 -5 -8 -4 -4 -5 -3 -3 -3 -0 1 -1 -2 1 -1 -1 -1 0 1 0 0 -1 -2 0 -0 -0 0 1 1
0 2 -0 3 7 5 4 -4 -7 9 3 -3 -5 -4 -6 -4 -4 -6 -6 -4 -6 -4 -3 -3 -3 -2 -2 -2 -3 -3 1 1 1 2 6 5 3 5 -0 0 0 -0 -0 0 1
-1 -0 2 5 8 2 -3 -6 6 8 -1 -3 -3 -4 -3 -3 -3 -3 -3 -2 1 0 0 -2 -0 -1 -2 0 -1 -0 3 7 7 8 7 5 4 6 1 -1 -0 1 2 2 1
-2 -1 1 2 4 -3 -3 6 7 1 -3 -5 -3 -3 -1 -2 -2 -2 -1 1 -0 3 3 3 4 -0 -1 -0 -0 2 2 5 8 8 6 3 4 3 0 -0 1 1 1 1 1
-3 -3 -3 -3 -2 -3 5 8 7 1 -4 -3 -3 -0 -1 -2 -1 0 1 1 -1 -1 4 5 3 -1 -2 -2 -1 1 2 -2 5 5 6 3 2 1 0 -0 -0 -0 0 1 1
-3 -3 -1 -3 -6 -4 8 9 3 -2 -4 -4 -1 -1 1 -1 -0 1 1 1 -1 -1 -2 -0 3 -1 -2 -2 -1 -0 -3 4 4 5 5 2 4 6 3 3 2 -0 -1 -1 0
0 1 2 1 -5 1 8 8 -1 -3 -0 1 1 -2 1 -0 -0 1 2 1 1 -1 -3 0 3 1 -3 -0 0 1 2 1 1 4 5 5 2 -3 2 4 2 -0 0 1 1
4 4 5 -2 2 5 6 4 -2 -1 -0 0 0 -1 1 -0 3 3 5 3 1 2 1 -1 2 2 1 -2 -3 -2 1 2 4 4 4 4 3 -2 1 0 0 -0 1 1 1
4 5 4 -1 5 6 4 1 -1 -0 -0 -1 2 2 1 3 4 6 5 3 2 3 4 2 2 4 4 3 0 -2 -1 -1 4 3 2 2 1 -2 -0 0 1 1 1 0 0
7 6 4 5 6 6 4 2 2 1 1 0 1 0 2 3 2 6 5 4 2 0 -1 2 1 2 4 -0 -3 -3 -3 -4 2 4 4 4 3 -0 2 3 1 1 1 1 1
6 6 0 4 3 5 4 3 4 3 1 1 1 1 2 3 4 6 5 4 3 -0 1 2 3 3 2 -1 -2 -3 -2 -2 -2 -1 1 0 1 3 2 2 2 2 1 2 2
6 7 -1 1 -4 3 4 2 4 2 2 2 1 1 3 4 4 5 4 3 3 0 2 3 5 2 1 2 1 -0 0 0 -1 -1 -0 -0 2 2 1 1 1 1 2 2 2
5 2 6 6 3 6 4 2 2 2 1 2 1 4 4 3 2 2 1 0 2 2 3 5 3 3 5 4 4 3 2 -0 -1 -1 -1 0 1 1 1 1 2 2 2 1 1

GFSSW_850_dewp_027.txt.gz
Dewpoint
-5 -4 -4 -3 -3 -3 -3 -4 -6 -8 -10 -11 -13 -13 -11 -7 -7 -8 -14 -17 -8 -4 -5 -10 -10 -7 -7 -4 -5 -8 -6 -7 -8 2 2 1 -6 4 7 5 5 5 6 8 5
-4 -3 -3 -3 -2 -3 -3 -4 -6 -8 -9 -11 -12 -11 -7 -7 -7 -12 -11 -7 -3 -2 -3 -9 -9 -5 -3 -4 -5 -7 -6 -7 -10 -9 -5 -6 1 5 6 6 6 4 6 7 4
-3 -3 -3 -2 -2 -2 -3 -4 -6 -8 -9 -11 -10 -6 -6 -6 -6 -9 -4 -4 -2 -2 -6 -5 -6 -5 -4 -5 -7 -9 -9 -15 -14 -11 -8 -8 -1 -0 6 6 5 3 5 5 4
-2 -2 -2 -2 -2 -2 -2 -4 -7 -8 -10 -10 -7 -6 -5 -5 -1 -5 -6 -6 -5 -4 -6 -7 -7 -4 -2 -5 -7 -15 -16 -16 -15 -15 -14 -13 -10 2 -3 4 3 3 3 4 4
-1 -1 -1 -1 -1 -2 -3 -5 -7 -8 -9 -8 -6 -4 -5 -4 -5 -4 -6 -6 -6 -8 -10 -8 -5 -3 -6 -9 -11 -16 -17 -14 -15 -16 -15 -14 -12 -11 -8 3 4 3 3 3 3
-1 -1 -1 -1 -1 -2 -4 -6 -7 -8 -7 -6 -4 -4 -4 -2 -3 -4 -5 -6 -6 -6 -8 -8 -6 -4 -6 -9 -16 -16 -16 -15 -13 -14 -13 -11 -11 -9 -2 5 5 4 3 3 3
-1 -2 -2 -2 -2 -3 -5 -6 -7 -7 -5 -4 -3 -3 -3 -5 -3 -4 -6 -7 -8 -6 -5 -6 -6 -3 -8 -11 -13 -16 -13 -13 -13 -13 -12 -10 -9 -8 3 5 5 5 4 4 3
-1 -2 -2 -2 -2 -4 -5 -6 -6 -5 -4 -3 -2 -3 -6 -6 -5 -5 -7 -9 -8 -6 -6 -9 -8 -7 -10 -12 -9 -9 -9 -8 -10 -11 -10 -10 -9 -9 4 5 6 5 5 4 4
-2 -3 -2 -3 -4 -6 -6 -6 -5 -4 -3 -2 -2 -2 -7 -5 -4 -7 -8 -8 -8 -6 -8 -10 -8 -7 -9 -8 -7 -6 -6 -6 -6 -10 -9 -10 -9 -9 1 5 6 6 6 6 5
-2 -3 -3 -3 -5 -6 -5 -5 -4 -3 -2 -1 3 -1 -10 -6 -9 -8 -9 -8 -7 -7 -10 -7 -7 -6 -6 -7 -7 -6 -5 -6 -6 -7 -8 -7 -8 -8 -1 5 3 4 4 5 5
-3 -4 -4 -4 -5 -5 -5 -3 -1 -1 0 -6 -6 -6 -2 -5 -8 -8 -11 -8 -5 -5 -4 -4 -4 -4 -7 -7 -7 -7 -4 -4 -5 -7 -7 -7 -5 -2 -5 -3 3 4 5 6 7
-3 -4 -4 -5 -5 -5 -3 0 6 5 -1 -7 -6 -5 -7 -4 -8 -9 -10 -6 -5 -3 -4 -4 -3 -5 -4 -1 -3 -3 -3 -3 -4 -4 -6 -4 -1 2 2 4 4 5 5 6 7
-3 -5 -5 -5 -5 -4 0 3 5 4 3 -3 -10 -8 -5 -5 -7 -9 -8 -5 -5 -4 -4 -3 -5 -4 -3 -1 0 1 -1 -1 -2 -3 -5 -3 -2 2 2 4 4 5 4 4 5
-3 -4 -4 -4 -4 -3 -1 3 5 1 -1 -4 -6 -6 -6 -5 -6 -6 -5 -5 -5 -4 -4 -4 -2 -2 -2 -2 -0 2 -1 -2 -2 -3 -2 -4 2 1 1 2 3 4 4 4 3
-2 -4 -4 -3 -1 -3 3 6 4 1 2 -8 -6 -7 -6 -5 -7 -7 -7 -4 -5 -4 -4 -2 -1 -1 -1 -2 -2 -0 -1 -1 -1 -0 0 2 2 1 2 3 3 3 4 3 3
-2 -3 -4 4 4 1 5 1 1 5 -0 -5 -5 -6 -6 -5 -5 -6 -6 -4 -4 -3 -3 -2 -2 -3 -2 -2 -3 -3 1 2 3 2 4 4 1 2 2 3 3 3 4 3 3
-1 -4 -2 6 6 4 -2 -1 2 6 -3 -3 -3 -6 -5 -3 -4 -5 -0 0 0 -1 1 0 -0 -2 -2 0 -1 -0 2 5 6 6 6 3 4 3 1 1 2 3 4 3 2
0 -1 3 5 5 1 -3 -1 5 3 -2 -4 -3 -4 -2 -2 -1 -1 0 1 -1 0 1 3 3 -0 -2 -1 -0 1 1 5 7 5 4 2 5 4 2 1 1 3 2 3 3
1 4 4 3 0 -0 -2 3 5 4 -3 -2 -1 -1 -0 -2 -0 0 0 0 -1 -1 2 3 1 -1 -3 -3 -1 1 1 -0 4 3 5 4 3 1 2 2 2 2 2 2 2
2 0 -1 -2 -3 -3 5 7 6 1 -2 -3 0 -0 0 -1 1 1 1 0 -1 -2 -1 1 3 -1 -3 -1 -2 -3 -1 3 2 3 4 2 4 5 3 3 2 2 2 2 2
-2 -2 1 -2 -5 -3 3 6 6 -1 0 -2 -1 0 -0 -0 1 2 2 2 2 1 -2 0 0 -0 0 -1 0 0 1 1 1 2 4 4 2 -2 2 3 1 2 2 2 2
-2 1 4 -2 -3 4 5 5 1 -1 -1 0 1 -0 0 2 5 4 4 2 3 2 -2 -0 1 2 1 -2 -1 -1 0 -0 0 0 3 2 1 -2 1 1 1 2 1 2 2
1 8 7 -1 -1 2 1 3 -0 -1 -0 -0 1 1 1 4 5 5 4 3 -0 2 1 -1 1 3 3 2 -1 -0 -0 2 1 1 2 1 0 0 1 1 1 2 2 2 2
4 5 6 4 0 -0 3 2 2 1 1 1 1 1 2 4 5 5 5 3 -1 -1 1 1 2 1 3 1 -0 -3 -3 1 1 2 2 1 -1 1 2 2 1 1 2 2 1
6 3 3 3 4 5 3 2 2 2 1 0 1 1 2 4 5 6 5 3 0 0 0 0 2 1 0 0 -2 -3 -3 -1 -0 -0 1 -1 1 -0 2 2 2 1 1 1 1
6 5 -0 -1 -1 3 4 4 3 2 1 1 1 3 2 3 3 5 4 2 -1 0 2 2 2 -1 0 2 2 -1 -3 -3 -2 -2 1 -0 3 2 2 2 2 2 2 2 1
6 6 -2 3 2 2 4 4 3 2 3 2 3 3 2 3 3 3 2 1 1 2 4 2 1 -1 -3 2 -1 -3 -3 0 -1 -1 -1 3 1 2 1 1 2 2 2 1 0

GFSSW_850_dewp_030.txt.gz
Dewpoint
-8 -7 -6 -4 -3 -3 -3 -3 -4 -5 -7 -9 -12 -13 -12 -11 -7 -8 -9 -14 -13 -7 -5 -8 -12 -8 -6 -5 -4 -8 -7 -7 -8 3 5 1 2 4 6 5 5 6 8 11 9
-6 -5 -4 -4 -3 -2 -2 -3 -3 -5 -7 -10 -11 -11 -11 -7 -8 -9 -17 -16 -12 -5 -3 -6 -7 -5 -4 -4 -5 -6 -6 -7 -9 1 2 1 1 1 6 5 5 5 9 10 3
-5 -4 -3 -3 -2 -2 -2 -2 -3 -5 -7 -9 -10 -10 -6 -6 -8 -11 -5 -6 -5 -2 -2 -3 -6 -6 -4 -5 -6 -8 -6 -11 -14 -6 -1 -3 1 3 6 6 5 7 10 8 1
-4 -3 -3 -2 -2 -2 -1 -2 -3 -6 -8 -9 -9 -7 -5 -5 -3 -4 -6 -4 -4 -4 -3 -6 -6 -5 -2 -4 -6 -9 -12 -13 -15 -12 -2 -2 -1 4 4 2 3 4 7 4 -1
-2 -2 -2 -1 -2 -2 -1 -2 -4 -6 -7 -9 -8 -5 -4 -4 -7 -3 -5 -6 -6 -5 -5 -6 -6 -5 -4 -7 -9 -12 -16 -14 -15 -11 -5 -6 -6 3 -4 3 3 5 6 4 2
-1 -1 -2 -2 -2 -1 -1 -2 -5 -6 -7 -8 -5 -4 -3 -1 -5 -3 -5 -5 -6 -6 -6 -6 -7 -5 -4 -9 -15 -15 -15 -14 -15 -14 -13 -11 -10 -9 -4 5 3 4 5 4 4
-1 -1 -2 -2 -2 -1 -2 -3 -6 -6 -7 -5 -4 -3 -3 -7 -4 -5 -5 -7 -7 -7 -5 -6 -8 -4 -6 -9 -12 -15 -14 -13 -13 -13 -10 -10 -10 -8 3 4 3 4 4 4 5
-0 -2 -3 -2 -1 -1 -3 -5 -5 -6 -5 -4 -3 -2 -6 -8 -6 -5 -7 -8 -8 -7 -6 -4 -5 -4 -5 -11 -10 -10 -9 -11 -12 -11 -10 -12 -10 -10 5 4 4 4 4 5 5
-0 -2 -3 -2 -1 -2 -4 -6 -5 -5 -4 -2 -1 -1 -6 -7 -4 -6 -8 -9 -8 -6 -6 -7 -6 -8 -10 -8 -7 -7 -7 -7 -8 -10 -10 -11 -10 -8 6 5 5 4 4 4 4
-0 -2 -3 -2 -2 -3 -4 -5 -4 -4 -2 -1 3 1 -9 -6 -6 -8 -9 -9 -6 -6 -7 -7 -7 -6 -7 -9 -6 -8 -6 -6 -6 -8 -9 -8 -4 -1 1 6 5 5 5 5 5
-1 -2 -3 -3 -3 -4 -4 -3 -1 -1 -0 -4 -5 -6 -2 -6 -6 -8 -9 -9 -5 -6 -4 -4 -4 -5 -6 -7 -8 -7 -6 -6 -6 -7 -6 1 3 3 -1 3 5 5 5 6 6
-1 -3 -3 -3 -4 -4 -3 -1 2 3 2 -4 -5 -4 -8 -6 -5 -8 -9 -6 -5 -4 -4 -4 -3 -5 -3 -3 -3 -4 -4 -3 -4 -4 -4 1 2 3 4 4 5 5 6 7 8
-1 -3 -4 -4 -5 -4 -2 4 5 5 3 -2 -9 -8 -6 -6 -5 -8 -8 -5 -5 -4 -4 -3 -5 -4 -2 -1 -0 0 -2 -1 -2 -4 -4 -2 -0 3 2 4 5 5 6 8 9
-1 -3 -4 -4 -3 -4 0 4 6 6 -1 -4 -4 -5 -6 -5 -5 -6 -5 -5 -5 -4 -5 -2 -2 -3 -2 -2 -1 0 -1 -2 -2 -4 -0 -4 0 2 3 4 4 5 5 5 5
-1 -3 -4 -4 -3 -2 -0 6 6 4 1 -6 -6 -8 -6 -6 -6 -6 -6 -5 -5 -3 -4 -1 -1 -1 -1 -2 -2 -1 -1 -1 -1 0 0 2 2 2 4 5 5 4 4 4 4
-0 -2 -3 1 -2 -2 4 2 3 4 1 -4 -5 -7 -5 -5 -5 -6 -4 -4 -4 -2 -1 -1 -2 -2 -2 -2 -3 -2 1 2 2 2 4 4 1 2 4 4 4 4 4 3 3
-0 -2 -1 5 0 1 1 3 1 5 -2 -3 -4 -6 -4 -3 -3 -2 -1 0 -2 1 1 0 -0 -2 -2 -0 -1 0 2 5 6 5 6 2 3 1 0 1 3 3 4 3 3
1 -1 -0 7 3 2 3 -3 1 2 -0 -4 -4 -4 -2 -2 -1 -1 0 1 -1 -1 2 2 2 -1 -2 -1 0 0 1 5 6 6 5 2 5 3 2 0 2 3 3 3 3
3 0 3 7 4 -1 -2 1 1 3 -3 -2 -3 -2 -0 -1 -1 -0 0 -0 -1 -1 1 2 1 -1 -3 -3 -1 1 1 -0 4 3 5 4 3 2 2 2 2 3 3 3 3
2 5 6 2 -0 1 1 0 4 3 -2 -3 -2 -1 1 -0 1 1 1 1 -1 -1 -1 1 3 -1 -2 -2 -2 -2 -0 2 2 3 3 2 4 5 4 3 2 2 3 3 3
4 2 3 -2 -1 -2 0 1 6 3 0 -3 -1 0 -0 -1 1 2 2 2 2 1 -1 -0 -0 -0 -1 -1 0 1 0 1 1 2 3 3 4 -0 3 3 3 2 2 2 2
2 1 4 -1 -2 2 4 5 4 -1 -1 1 0 -1 -0 1 3 3 3 2 2 2 -2 -0 0 2 1 -2 -1 -1 -0 -2 -0 -1 2 2 1 -1 1 1 2 1 2 2 2
1 8 7 -0 1 2 1 3 1 -1 0 0 1 1 2 4 4 4 4 2 0 1 -0 -1 1 3 1 -2 -2 -1 1 1 -0 0 2 1 -1 0 1 1 1 2 2 2 2
2 6 7 4 -4 -0 -0 3 2 1 1 0 1 1 3 5 4 5 4 3 -1 -1 1 -1 1 1 2 -1 -1 -2 1 0 -1 1 1 1 -2 0 2 1 2 2 2 2 2
3 4 4 5 5 -0 0 1 2 1 1 0 1 2 3 5 5 5 4 3 -1 1 1 -1 1 1 1 1 -1 -4 -3 1 -0 -1 -0 -2 0 -2 1 1 1 2 2 2 1
6 3 0 1 4 3 3 3 2 2 2 1 1 3 2 3 2 5 4 2 -2 1 2 1 2 -2 2 2 1 -0 -2 -2 -2 -2 0 -1 -1 -2 1 1 1 1 2 1 1
6 3 -1 2 3 3 4 4 3 2 3 2 2 2 2 3 3 3 1 1 0 1 3 1 1 -1 -0 0 -3 -3 -2 -2 -2 -1 -2 0 -1 2 2 2 2 1 1 1 1

GFSSW_850_dewp_033.txt.gz
Dewpoint
-9 -8 -8 -6 -5 -4 -4 -3 -4 -4 -4 -6 -8 -10 -11 -13 -13 -11 -12 -12 -12 -8 -7 -7 -12 -12 -9 -6 -4 -7 -6 -6 -2 5 7 5 5 3 4 6 5 7 11 11 12
-8 -8 -6 -5 -4 -3 -3 -3 -3 -3 -4 -6 -8 -9 -11 -11 -9 -10 -10 -13 -15 -11 -5 -6 -8 -7 -5 -5 -4 -7 -5 -7 -9 2 1 1 3 4 6 6 5 6 11 12 11
-7 -7 -4 -4 -3 -2 -2 -2 -3 -3 -4 -6 -8 -10 -10 -7 -7 -10 -3 -13 -11 -7 -2 -4 -7 -6 -4 -4 -5 -6 -5 -7 -10 1 1 1 2 6 5 6 5 8 11 11 9
-6 -5 -3 -3 -2 -2 -2 -2 -2 -3 -4 -7 -9 -10 -6 -5 -3 -4 -5 -4 -4 -4 -2 -5 -5 -5 -3 -3 -6 -7 -11 -12 -15 -6 -2 1 2 6 5 3 4 5 10 7 2
-5 -3 -3 -2 -1 -2 -1 -2 -3 -3 -5 -8 -9 -7 -5 -4 -10 -3 -5 -6 -4 -4 -5 -6 -7 -6 -2 -3 -8 -8 -14 -14 -14 -13 -3 0 3 5 2 2 4 7 8 4 -3
-4 -2 -1 -1 -2 -2 -1 -2 -3 -4 -7 -8 -7 -5 -3 -2 -7 -3 -5 -5 -5 -5 -5 -4 -7 -7 -4 -8 -9 -12 -14 -14 -13 -9 -7 -6 -6 2 -0 4 5 7 6 4 1
-2 -2 -1 -2 -2 -1 -1 -2 -3 -6 -7 -7 -5 -3 -2 -8 -5 -4 -5 -5 -6 -6 -5 -5 -7 -3 -4 -7 -14 -15 -12 -12 -11 -11 -10 -10 -9 -8 1 3 6 8 6 4 1
-2 -1 -1 -1 -2 -1 -1 -2 -5 -6 -6 -5 -3 -2 -6 -9 -7 -5 -4 -7 -8 -7 -6 -5 -4 -6 -5 -11 -9 -10 -8 -10 -11 -11 -10 -11 -8 -7 5 4 6 7 6 4 3
-1 -1 -1 -2 -1 -1 -2 -4 -5 -5 -4 -3 -1 -0 -7 -7 -5 -4 -7 -8 -7 -7 -5 -5 -4 -4 -10 -7 -6 -6 -8 -6 -8 -9 -9 -10 -6 -1 6 4 4 5 5 5 5
-1 -0 -0 -2 -1 -2 -3 -4 -3 -3 -2 -1 2 2 -8 -6 -5 -7 -8 -9 -6 -5 -5 -5 -6 -5 -6 -8 -5 -5 -6 -6 -7 -8 -6 -5 1 1 1 5 5 5 4 5 5
-0 -0 -1 -2 -1 -3 -4 -3 -0 0 -1 -3 -5 -5 -2 -6 -5 -8 -9 -9 -5 -6 -3 -5 -4 -5 -6 -7 -9 -7 -6 -5 -6 -6 1 3 4 3 2 5 5 6 5 5 5
0 -0 -1 -2 -2 -3 -4 -2 -2 1 1 -4 -4 -5 -7 -6 -6 -8 -9 -7 -5 -3 -4 -3 -2 -5 -2 -5 -4 -4 -3 -2 -3 -4 -1 2 4 4 4 4 5 6 6 6 6
0 0 -2 -2 -3 -4 -4 1 5 5 4 -2 -6 -7 -7 -5 -6 -8 -9 -5 -5 -4 -3 -1 -4 -4 -2 -2 -0 -1 -0 -1 -2 -3 -3 -1 1 4 4 5 5 5 6 7 8
1 0 -2 -2 -3 -5 -3 0 6 8 -0 -4 -3 -5 -6 -5 -6 -6 -5 -5 -4 -3 -2 -1 -2 -3 -2 -0 -1 1 -1 -2 -2 -3 -1 -3 -2 2 4 5 5 5 7 8 9
1 -0 -2 -3 -3 -4 -1 0 7 6 2 -5 -5 -7 -5 -6 -6 -6 -5 -5 -3 -2 -3 -1 -1 -1 -0 -2 -3 1 -0 -0 -1 0 1 2 -0 0 4 6 6 5 6 6 6
1 0 -2 -3 -1 -2 1 6 6 4 3 -4 -5 -6 -4 -5 -5 -5 -3 -4 -4 -0 -0 -1 -2 -2 -2 -1 -2 1 1 2 2 2 4 4 1 0 5 5 6 5 5 5 5
1 1 -3 -4 1 -1 4 5 2 5 -2 -3 -4 -4 -3 -3 -2 -2 -0 1 -0 2 3 1 0 -1 -2 0 -1 1 2 5 6 7 6 3 3 2 1 2 5 5 4 4 3
2 1 -2 1 6 5 3 -1 1 0 1 -5 -4 -3 -1 -2 -0 -0 0 1 -0 -0 2 2 2 -1 -2 -0 1 1 2 7 5 7 6 2 5 2 2 0 4 4 4 3 3
2 1 -0 4 7 6 2 2 2 1 -1 -2 -3 -1 -1 -1 -0 0 1 0 -1 -0 2 3 2 -2 -3 -2 -1 1 1 0 4 3 5 3 3 1 2 2 3 4 4 4 3
1 3 -0 2 8 4 1 1 -0 2 -2 -4 -2 -1 1 1 1 1 1 1 -1 -1 -1 2 3 -1 -2 -2 -1 -1 -0 3 3 4 2 1 3 2 4 3 3 3 4 4 3
3 4 4 7 5 3 2 0 4 4 0 -3 -1 0 0 1 1 2 2 2 1 0 -1 0 1 1 -0 0 1 1 1 1 1 2 0 2 -2 1 2 3 3 3 3 3 3
4 3 7 4 -0 1 3 1 4 1 -0 1 -1 -0 0 1 3 3 3 2 2 2 1 -0 2 4 2 -2 -1 -1 0 0 2 -1 3 2 0 -3 1 2 2 3 3 2 2
4 7 5 5 3 3 0 2 1 -1 0 0 2 1 3 4 4 4 4 2 1 -0 2 1 2 4 2 -1 -1 0 0 -1 -0 2 3 7 -1 -2 1 1 2 2 2 2 2
3 7 6 4 -3 0 2 1 1 1 1 1 2 2 4 5 4 5 5 2 -1 -0 -0 -1 1 3 4 0 -1 1 2 -1 -0 3 1 2 -2 -3 1 2 2 2 2 2 2
4 5 5 5 2 -1 -2 2 2 2 1 0 2 2 4 5 5 5 4 2 -1 1 1 -0 1 1 1 1 -1 -3 -1 1 -1 -1 2 -2 -1 -3 -2 1 2 2 2 2 2
3 3 1 2 -0 1 2 3 2 2 2 1 3 3 2 4 3 6 4 2 -2 2 2 1 3 -1 2 1 0 0 -2 -2 0 -1 -1 -1 -1 -3 -2 0 1 2 2 2 2
4 1 -2 2 3 1 3 4 2 3 3 2 2 3 2 3 3 2 1 1 0 2 3 1 2 1 2 -1 -3 1 -0 -1 -2 -2 -1 0 -2 1 2 1 1 2 2 2 1

GFSSW_850_dewp_036.txt.gz
Dewpoint
-10 -9 -8 -8 -7 -5 -5 -4 -5 -4 -4 -4 -6 -7 -11 -12 -14 -14 -15 -14 -10 -11 -5 -8 -11 -7 -7 -7 -5 -7 -8 -3 3 6 6 4 4 4 3 5 6 8 10 12 13
-10 -8 -8 -6 -5 -5 -4 -3 -3 -4 -3 -4 -6 -8 -11 -13 -13 -12 -11 -9 -11 -12 -5 -6 -11 -7 -9 -8 -6 -8 -6 -7 -7 -0 0 2 0 3 3 4 5 8 12 13 13
-9 -8 -7 -5 -4 -4 -3 -3 -3 -3 -3 -4 -7 -9 -11 -10 -6 -7 -3 -13 -14 -9 -5 -5 -6 -6 -9 -7 -7 -8 -6 -9 -10 -3 -1 0 1 2 3 4 5 6 13 13 13
-9 -8 -6 -4 -3 -2 -3 -2 -3 -3 -3 -5 -8 -10 -9 -6 -4 -3 -4 -11 -10 -8 -2 -4 -6 -7 -10 -9 -9 -6 -9 -10 -13 -2 -1 -1 1 3 3 2 4 5 12 13 12
-8 -7 -5 -3 -2 -2 -2 -2 -2 -2 -3 -6 -9 -9 -6 -0 -2 -4 -5 -4 -7 -5 -2 -4 -6 -8 -10 -8 -7 -7 -10 -12 -11 -5 -1 -1 1 2 3 4 6 10 12 11 10
-8 -6 -4 -2 -1 -2 -2 -2 -2 -3 -5 -7 -8 -7 -4 1 -9 -5 -4 -5 -5 -5 -3 -3 -7 -6 -4 -6 -7 -9 -12 -14 -13 -8 -2 -0 2 3 3 6 9 11 10 7 5
-7 -4 -3 -1 -1 -2 -2 -2 -3 -4 -6 -7 -6 -4 -3 -1 -6 -3 -6 -6 -4 -5 -3 -4 -4 -5 -3 -5 -13 -12 -12 -10 -8 -5 -4 -2 -1 -5 3 6 8 8 6 5 1
-6 -3 -2 -1 -1 -2 -2 -2 -4 -5 -6 -7 -4 -3 1 -10 -8 -6 -5 -5 -6 -4 -2 -3 -3 -4 -4 -8 -11 -12 -12 -8 -8 -6 -8 -5 -6 -5 3 4 5 5 5 5 4
-4 -2 -1 -1 -1 -2 -2 -2 -5 -4 -5 -4 -2 -0 -0 -7 -7 -4 -7 -5 -7 -6 -3 -4 -3 -3 -5 -7 -10 -9 -11 -10 -9 -10 -7 -10 -8 -3 4 3 5 5 5 5 4
-3 -1 0 -0 -1 -2 -2 -4 -4 -3 -4 -2 0 5 -7 -5 -4 -7 -8 -7 -3 -4 -2 -3 -4 -6 -7 -9 -8 -8 -12 -11 -11 -10 -10 -9 -3 -3 4 3 3 4 5 5 5
-1 -0 0 -0 -2 -2 -2 -3 -0 2 -3 1 -2 0 -3 -4 -5 -7 -9 -5 -4 -4 -5 -4 -4 -7 -9 -10 -10 -10 -7 -8 -8 -6 -7 -6 -3 -2 2 4 3 4 5 5 6
-1 0 0 -0 -2 -2 -2 2 0 3 0 -5 -2 -1 -6 -7 -4 -7 -8 -7 -5 -6 -4 -3 -5 -5 -5 -6 -6 -6 -6 -4 -4 -6 -4 -2 -1 0 0 4 4 4 5 5 6
0 1 0 -1 -2 -2 -5 -5 3 5 5 -0 -1 -2 -4 -5 -6 -7 -7 -5 -6 -5 -4 -5 -3 -3 -4 -4 -4 -3 -3 -2 -3 -4 -3 -1 0 2 2 3 5 6 5 6 7
1 1 1 -1 -2 -3 -6 -3 1 7 2 -4 -4 -4 -8 -3 -6 -7 -6 -5 -4 -5 -3 -2 -3 -3 -3 -3 -2 -2 -2 -3 -3 -3 -3 -3 -3 1 2 2 3 5 6 7 8
1 1 1 -1 -3 -5 -1 -2 3 7 -1 -7 -5 -5 -4 -5 -7 -5 -5 -5 -6 -4 -3 -1 -2 -2 -3 -2 -2 0 -3 -3 -3 -2 -1 -1 -2 -1 2 3 3 4 6 8 8
1 1 2 -1 -4 -3 -1 4 8 6 2 -4 -5 -5 -4 -5 -6 -4 -3 -4 -2 -2 -2 -2 -2 -2 -2 -1 -2 -0 0 1 0 -0 1 -1 -0 -7 -4 0 3 4 7 8 7
2 2 1 -3 1 -1 2 7 4 3 -3 -3 -4 -5 -5 -4 -4 -4 -2 -2 -3 0 1 -1 -1 -2 -1 -0 -0 -0 -1 -1 2 3 1 2 1 -5 -1 0 3 5 7 6 6
2 2 2 -2 -1 0 7 5 2 -4 -3 -4 -5 -5 -4 -4 -2 -1 -1 -2 -1 -2 -1 -2 1 -2 -2 -0 -1 -1 -1 -1 -2 1 0 2 2 1 1 -0 3 4 5 5 5
2 2 2 -3 -0 9 5 6 0 -1 -3 -4 -4 -4 -2 -2 -4 -1 -0 -2 -1 -0 -3 -0 0 -2 -2 -1 -1 0 -0 1 4 4 5 -1 0 -0 1 1 3 4 5 4 3
2 2 3 -3 3 6 5 4 -1 0 -3 -4 -4 -4 -2 -2 -3 -2 0 -0 -0 -1 0 1 2 -1 -1 -2 -1 0 -1 2 2 3 -1 -4 -3 -5 2 2 2 4 4 3 2
4 4 2 -1 1 7 5 1 -1 3 -0 -4 -5 -2 -3 -0 -3 -3 -1 0 -0 -1 -0 -0 -0 1 -0 -1 -1 1 1 -0 -1 1 -3 -4 -8 -1 -1 1 1 3 3 2 3
4 4 3 0 7 6 3 -1 1 -0 2 -2 -4 -3 -2 -1 0 -2 -1 -1 1 -1 1 0 1 4 1 -1 -1 -1 -0 -1 -2 -1 2 3 -5 -5 -1 1 1 1 2 2 3
4 6 8 7 7 6 1 0 3 -1 0 0 -1 -1 0 1 2 2 2 2 2 0 1 0 2 4 3 0 -0 0 -0 -2 -1 1 1 7 -6 -4 -1 -0 0 1 2 3 3
3 7 8 5 2 2 1 0 2 1 1 1 2 2 3 3 3 5 4 2 1 1 -1 -2 2 1 2 -0 -1 1 1 -1 -2 1 -3 -1 -8 -6 -3 -1 -1 1 2 3 3
3 4 4 7 3 1 -0 -1 1 3 1 1 2 1 2 5 4 5 4 1 1 1 2 1 2 1 -0 -1 -1 -2 -2 -0 -2 -3 -0 -5 -6 -10 -8 -6 -4 0 2 3 3
4 4 4 3 0 1 1 1 1 2 2 1 2 2 3 4 1 4 3 1 2 2 2 1 3 2 2 1 -0 -0 -2 -3 -2 -3 -2 -3 -3 -6 -6 -4 -1 1 2 2 2
3 1 1 3 1 1 0 1 -0 3 4 2 2 3 4 4 4 3 3 1 -0 2 3 2 3 2 0 -1 -1 5 0 -2 -3 -2 -1 -1 -3 -5 -3 -2 -2 0 2 2 2

GFSSW_850_dewp_042.txt.gz
Dewpoint
-9 -10 -11 -10 -9 -8 -8 -7 -7 -5 -5 -6 -6 -6 -6 -9 -13 -15 -12 -9 -3 -6 -12 -6 -5 -7 -8 -9 -11 -12 -9 -7 -7 -0 9 7 9 7 4 2 5 6 10 11 13
-9 -10 -10 -10 -9 -8 -7 -7 -5 -4 -5 -5 -6 -6 -7 -11 -14 -17 -7 -11 -14 -11 -12 -6 -6 -7 -9 -11 -11 -11 -8 -9 -1 6 8 6 8 7 -1 -0 3 8 12 14 13
-8 -9 -10 -10 -9 -7 -7 -5 -4 -4 -4 -4 -5 -6 -9 -12 -3 -2 -5 -4 -8 -12 -14 -6 -7 -11 -11 -12 -12 -11 -8 -11 -4 2 5 6 6 5 0 3 4 9 12 14 14
-6 -9 -9 -9 -8 -7 -6 -5 -3 -4 -4 -4 -5 -7 -10 -11 2 -1 -6 -4 -14 -14 -7 -4 -7 -10 -12 -11 -12 -10 -11 -11 -6 2 2 2 2 3 3 4 2 6 13 13 13
-5 -8 -9 -8 -7 -6 -5 -3 -3 -4 -3 -4 -6 -8 -10 5 -0 -2 -5 -5 -10 -10 -4 -5 -9 -10 -10 -11 -12 -11 -11 -10 -9 -8 -2 -0 2 3 2 -1 3 7 13 12 10
-3 -7 -8 -7 -6 -5 -4 -3 -3 -4 -3 -4 -6 -9 -7 1 -6 -4 -2 -5 -6 -7 -4 -6 -9 -10 -10 -8 -12 -11 -11 -9 -8 -5 -4 -0 3 3 1 1 10 12 12 11 10
-2 -6 -7 -7 -5 -4 -2 -2 -3 -3 -3 -5 -7 -8 2 -2 -5 -3 -0 -2 -4 -5 -5 -7 -7 -8 -7 -5 -7 -9 -8 -9 -7 -4 -1 -2 1 -1 2 3 7 9 8 8 7
0 -4 -7 -7 -4 -3 -2 -2 -3 -2 -4 -6 -7 -6 3 -4 -4 -3 -2 -1 -2 -3 -4 -5 -4 -6 -5 -3 -7 -11 -9 -4 -5 -6 -5 1 4 -1 1 3 6 7 7 6 5
2 -2 -6 -6 -3 -2 -1 -3 -3 -3 -5 -7 -5 4 1 -2 -3 -4 -4 -4 -4 -3 -3 -3 -3 -3 -4 -2 -5 -8 -5 -3 -3 -8 -5 -1 1 -2 -1 1 2 3 3 3 2
3 -1 -5 -5 -2 -1 -1 -3 -3 -5 -4 -6 -4 4 2 -4 -7 -6 -5 -5 -4 -3 -2 -2 -3 -2 -3 -2 -3 -3 -6 -6 -4 -7 -8 -2 -3 -6 -3 1 1 1 -0 -2 -2
4 0 -5 -4 -1 0 -1 -2 4 6 4 -1 -2 -4 -5 -5 -5 -5 -6 -6 -4 -2 -1 -2 -1 -0 -3 -5 -5 -6 -6 -6 -10 -10 -9 -9 -8 -8 -4 -1 1 0 0 -1 -1
5 2 -5 -3 -0 0 -0 5 1 4 5 3 -4 -2 -3 -2 -3 -7 -7 -7 -4 -2 2 2 -2 -4 -3 -5 -5 -8 -3 -4 -11 -13 -11 -9 -10 -7 -6 -3 0 1 2 2 1
6 3 -4 -2 0 0 -1 -3 2 5 5 1 -0 -9 -5 -4 -4 -7 -8 -8 -6 -1 -1 1 -1 -1 -6 -6 -8 -7 1 -0 -1 -9 -13 -9 -11 -6 -6 -5 -3 0 2 2 3
7 3 -4 -0 0 2 3 -4 1 3 7 -1 -3 -7 -6 -4 -5 -7 -8 -9 -6 -4 -1 1 1 -1 -2 -8 -8 -1 -1 -3 -3 -3 -5 -1 0 -4 -4 -4 -3 -2 -1 1 3
7 4 -3 0 6 5 3 1 3 6 10 -6 -5 -7 -5 -5 -7 -8 -8 -9 -4 -5 -4 4 4 -0 -1 -4 -5 0 -1 -0 -5 -6 2 1 2 3 -2 -1 -2 0 0 1 2
7 4 -1 1 2 3 6 4 7 9 6 -6 -8 -7 -6 -7 -7 -8 -8 -7 -8 -5 -3 2 -1 -2 -4 -5 -6 -1 -0 -2 -4 -2 4 3 4 2 1 2 3 0 1 2 3
7 4 -2 3 4 1 5 7 8 7 -5 -5 -6 -6 -5 -5 -7 -9 -7 -6 -5 -2 -3 -2 -4 -4 -4 -4 -4 -4 -3 4 10 10 5 -6 -3 -4 2 0 -0 0 2 3 4
7 5 -2 1 6 7 7 10 8 -1 0 -8 -8 -6 -4 -6 -6 -8 -6 -7 -8 -7 -6 -2 1 -4 -5 -4 3 1 -3 8 8 10 4 -2 -1 -2 -2 -3 -2 1 1 4 7
7 6 2 0 4 7 8 10 5 0 -5 -5 -7 -4 -4 -6 -7 -7 -7 -7 -8 -8 -3 1 2 1 -4 -6 -1 0 -1 -2 -0 7 9 -3 -9 0 -2 -1 -1 1 3 6 6
6 5 3 2 4 8 9 7 3 -1 -5 -6 -5 -6 -4 -6 -6 -6 -6 -7 -9 -9 -2 3 7 3 -2 -4 -4 -4 -5 1 -1 3 3 -4 -6 3 -0 -1 -0 2 4 5 5
6 5 1 3 5 8 8 6 4 -1 -3 -4 -6 -5 -5 -6 -6 -6 -7 -8 -8 -6 -4 1 6 5 -1 -2 -6 -0 -0 -4 -5 1 6 6 -1 -6 -5 -3 -1 1 3 5 5
5 5 0 3 6 3 6 3 1 1 -2 -3 -5 -6 -6 -5 -5 -7 -7 -7 -6 -5 -2 -3 -1 3 0 -3 -4 -4 -2 -2 9 3 4 7 2 -7 -6 -5 -4 -2 1 4 4
4 4 6 3 6 4 2 3 1 1 -0 -2 -2 -5 -7 -4 -3 -5 -5 2 -1 -4 -2 -2 1 4 -0 -2 -2 -2 -5 -5 -2 3 4 10 3 -7 -7 -8 -6 -5 -2 1 3
4 7 8 7 2 1 4 3 3 1 -2 -2 -2 -5 -5 -2 -3 -2 -4 2 1 0 -1 1 -1 -1 3 -3 -2 0 -1 -4 -2 8 4 3 -3 -7 -7 -6 -7 -6 -5 -3 1
5 4 7 8 7 1 4 2 3 2 -2 -3 -2 -4 -3 -1 -2 -2 -3 3 1 1 -0 0 -0 -3 -5 -5 -4 -1 -2 -3 -2 -1 3 1 -3 -7 -7 -7 -9 -8 -6 -5 -3
5 4 5 3 4 3 4 4 2 -0 -2 0 -1 -3 -3 -2 -3 -2 -1 3 1 2 1 0 3 2 3 -0 -1 -1 -3 -4 -4 -4 -5 -4 -4 -7 -9 -6 -6 -7 -8 -7 -4
5 4 4 4 5 3 5 4 3 0 -2 -3 -1 -1 0 -0 -1 2 -0 0 -1 3 3 2 5 6 7 1 -0 4 0 -2 -4 -5 -4 -1 -3 -6 -6 -7 -6 -6 -6 -5 -3

GFSSW_850_dewp_045.txt.gz
Dewpoint
-5 -8 -9 -10 -10 -10 -9 -8 -8 -7 -7 -6 -7 -5 -6 -7 -10 -14 -18 -12 -9 -7 -10 -14 -4 -4 -7 -7 -8 -9 -9 -8 -9 7 8 8 8 7 4 9 9 8 8 10 11
-6 -6 -9 -10 -10 -10 -9 -8 -7 -7 -6 -6 -6 -5 -6 -9 -15 -12 -4 -8 -12 -12 -11 -14 -6 -5 -7 -8 -9 -10 -8 -7 -6 6 7 6 6 8 8 8 10 11 11 10 12
-5 -6 -8 -9 -10 -10 -9 -8 -7 -6 -6 -6 -5 -5 -7 -10 -7 -2 -5 -4 -9 -7 -13 -12 -6 -6 -7 -9 -10 -11 -9 -10 -4 3 3 5 5 4 6 4 5 9 9 9 11
-2 -6 -7 -9 -10 -9 -8 -8 -6 -4 -5 -5 -4 -6 -8 -10 3 -3 -4 -7 -8 -10 -12 -10 -5 -4 -7 -11 -12 -10 -11 -10 0 2 4 5 5 4 3 3 4 9 10 11 11
1 -4 -6 -9 -9 -8 -7 -7 -5 -4 -5 -4 -4 -6 -9 -2 -8 -3 -3 -6 -7 -12 -10 -5 -4 -6 -8 -10 -10 -10 -10 -10 -1 2 3 4 5 5 3 2 4 6 7 11 10
4 -1 -6 -8 -8 -8 -7 -6 -4 -4 -5 -4 -5 -7 -7 4 -6 -4 -5 -5 -6 -8 -6 -4 -5 -9 -9 -8 -5 -8 -11 -9 -7 -2 1 4 6 2 1 2 3 3 6 10 10
7 1 -4 -7 -8 -8 -6 -5 -3 -4 -4 -4 -6 -7 -5 -14 -6 -3 -0 -2 -3 -5 -5 -5 -6 -7 -6 -4 -4 -7 -8 -8 -6 -1 1 3 6 6 3 4 9 10 10 11 10
8 4 -3 -6 -8 -7 -5 -3 -3 -4 -4 -5 -6 -5 -5 -13 -8 -4 -2 -1 -2 -3 -3 -3 -4 -5 -5 -5 -3 -4 -9 -5 -5 -2 1 0 4 2 5 10 11 10 10 9 8
9 6 0 -5 -7 -6 -5 -2 -4 -4 -5 -6 -5 7 2 -0 -4 -8 -5 -4 -2 -2 -3 -3 -3 -3 -3 -2 -0 -5 -5 -3 -2 -5 2 2 2 0 4 8 8 8 7 5 3
9 7 2 -4 -7 -5 -3 -2 -4 -4 -4 -5 -4 3 -2 -7 -4 -8 -5 -5 -5 -3 -2 -2 -3 -1 -1 -1 1 -3 -4 -5 -3 -4 -1 -1 -1 -2 3 6 7 7 6 5 3
8 8 4 -3 -6 -4 -2 -2 4 6 2 -4 -3 -13 -8 -4 -5 -7 -6 -5 -5 -2 1 2 1 1 -1 -1 -4 -4 -3 -4 -5 -6 -4 -1 -2 -1 -1 2 3 4 4 3 1
6 8 5 -2 -6 -3 -1 -1 3 3 6 4 4 4 -2 -2 -2 -4 -6 -6 -5 3 4 3 5 1 -3 -2 -2 -2 -2 -2 -3 -9 -10 -8 -6 -4 -3 1 1 1 0 1 -0
7 7 6 -1 -5 -3 -1 -3 -5 2 6 4 0 2 -2 -4 -3 -3 -7 -7 -4 3 3 5 3 1 -2 -1 -1 1 1 -1 0 -0 -5 -9 -7 -6 -5 -3 1 1 -0 -1 -1
6 8 6 -1 -3 6 3 3 -5 4 8 4 0 1 -4 -8 -3 -5 -5 -8 -7 -0 2 2 0 1 0 1 -1 2 -1 -0 -1 1 1 -2 1 -1 -4 -4 -1 2 1 1 1
7 8 6 -0 2 6 5 3 2 5 9 2 -0 -5 -9 -6 -5 -5 -7 -7 -4 -3 0 3 3 1 2 1 -1 -1 -1 -0 1 1 2 1 3 1 -1 -2 -2 -2 2 2 2
6 7 6 0 -3 3 5 6 4 10 9 0 -4 -5 -3 -4 -4 -6 -7 -8 -7 -3 -0 -1 -1 -0 0 0 -1 -1 -1 1 4 5 4 1 2 4 -1 -1 1 -2 -0 2 4
4 7 7 2 -5 6 4 6 8 10 -1 -3 -4 -5 -4 -3 -4 -5 -5 -5 -3 -1 3 -0 -2 0 -1 1 -1 -0 1 6 7 8 7 2 2 3 1 -2 1 -1 -1 2 4
6 7 7 3 -1 6 3 8 10 4 3 -4 -5 -4 -2 -4 -4 -4 -4 -3 -4 -4 -1 2 3 1 0 -1 1 1 2 5 8 9 7 1 4 2 -0 -1 -1 -0 -0 1 4
5 7 7 5 3 7 8 10 6 4 -2 -1 -5 -2 -2 -4 -3 -4 -5 -3 -5 -6 -3 5 4 3 1 2 -1 3 4 2 6 7 6 2 -3 -0 -0 -0 1 2 2 5 6
2 6 6 5 -2 7 8 6 6 2 0 -0 -1 -3 -1 -3 -3 -3 -3 -5 -5 -6 -2 2 6 5 3 2 -1 1 -1 2 3 2 2 1 -0 4 2 1 2 3 5 6 7
2 6 5 6 1 6 7 6 5 3 1 2 -1 -2 -2 -2 -3 -4 -3 -5 -5 -3 1 3 3 5 3 4 1 -0 0 -1 -0 4 5 6 1 -4 -0 -0 2 3 5 6 6
5 5 4 4 6 5 6 4 3 3 2 3 -1 -1 -2 -2 -1 -4 -3 -4 -6 -3 -0 2 5 7 6 2 -1 -3 -0 3 4 2 4 4 2 -6 -4 -1 -1 2 4 5 5
4 4 4 2 3 5 3 4 3 3 2 3 0 -1 -2 -2 1 -2 -2 2 -1 -2 0 1 2 6 4 2 1 -1 -1 -3 0 4 3 4 2 -6 -7 -7 -4 -2 2 5 5
4 5 6 6 -2 0 4 3 3 2 3 2 2 -0 0 -1 -2 1 4 3 2 1 -1 1 2 2 3 -1 -1 -0 -0 -2 -1 4 3 3 1 -2 -4 -6 -6 -6 -5 3 4
5 3 5 7 5 1 2 2 3 4 2 2 3 0 1 1 -1 -0 4 4 2 1 0 1 2 -1 -2 -0 -0 -1 -1 -0 -0 1 3 2 1 -1 -4 -5 -6 -5 -5 -5 -1
5 4 5 6 5 5 2 2 3 2 2 3 3 1 -0 0 0 1 3 4 3 2 1 1 3 1 3 2 0 -0 -1 -1 -2 -2 -2 -2 -2 -4 -5 -5 -6 -6 -6 -5 -4
4 3 3 5 5 6 4 2 2 2 2 1 0 2 0 0 -2 2 -3 1 2 4 3 4 4 4 5 0 -0 1 -1 -2 -1 -2 -3 -2 -3 -3 -3 -3 -4 -4 -3 -3 -3

GFSSW_850_dewp_048.txt.gz
Dewpoint
-9 -8 -7 -9 -10 -10 -10 -10 -9 -8 -8 -7 -7 -6 -7 -8 -10 -16 -15 -11 -11 -9 -10 -11 -13 -4 -4 -7 -8 -7 -7 -7 -8 2 7 8 8 8 7 4 9 10 10 11 12
-4 -8 -7 -8 -9 -10 -10 -10 -9 -8 -7 -6 -6 -6 -6 -9 -14 -4 -5 -6 -12 -12 -12 -12 -13 -5 -4 -7 -8 -9 -8 -8 -10 3 7 7 7 7 7 7 10 12 12 11 11
0 -4 -8 -7 -9 -10 -10 -10 -8 -8 -6 -6 -6 -5 -7 -10 -8 -2 -6 -5 -6 -13 -10 -12 -11 -7 -6 -6 -7 -9 -8 -10 -9 -0 4 5 4 5 5 7 8 12 12 12 11
6 1 -5 -8 -8 -9 -10 -9 -8 -7 -5 -6 -6 -5 -8 -11 -0 -3 -3 -5 -6 -11 -8 -12 -8 -4 -6 -7 -11 -11 -11 -11 -9 3 4 4 4 4 4 3 10 10 9 10 11
8 5 -1 -7 -8 -9 -10 -9 -8 -6 -4 -6 -5 -6 -8 -8 -15 -6 -3 -5 -7 -9 -12 -7 -4 -4 -5 -9 -9 -8 -8 -10 -4 4 4 4 4 4 4 5 9 6 8 8 10
8 8 4 -4 -7 -9 -10 -8 -7 -5 -4 -4 -5 -6 -7 3 -9 -4 -1 -2 -5 -8 -8 -8 -5 -5 -5 -7 -5 -3 -4 -6 2 4 2 3 3 2 4 8 8 6 9 8 10
8 8 7 -0 -6 -8 -9 -8 -6 -4 -4 -4 -5 -7 -7 -14 -13 -5 -1 -1 -3 -4 -5 -5 -4 -4 -5 -5 -5 -3 -8 -7 1 3 4 2 4 4 4 5 9 9 8 10 11
6 8 8 3 -5 -7 -9 -7 -5 -3 -4 -4 -6 -6 -8 -17 -7 -7 -2 -1 -1 -1 -3 -3 -3 -3 -4 -4 -3 -2 -8 -5 -5 -0 2 0 2 1 2 4 5 5 8 10 10
6 7 8 5 -2 -6 -8 -6 -4 -4 -4 -4 -6 0 -0 -3 -12 -6 -2 -3 -3 -1 -1 -2 -3 -3 -3 -2 -1 -3 -5 -2 -3 -2 1 -1 -0 1 3 6 10 9 10 10 11
6 5 8 7 1 -6 -8 -5 -4 -2 1 -3 -3 -0 -6 -8 -3 -10 -4 -5 -4 -2 -2 -2 -2 -2 -1 -1 2 -1 -4 -5 -4 -3 1 1 -1 -2 7 10 10 10 10 10 10
7 5 6 8 3 -7 -8 -4 -0 6 4 2 -4 -10 -12 -6 -3 -5 -6 -5 -4 -2 -0 1 1 2 1 0 -1 -2 -4 -3 -4 -6 1 2 -1 -2 7 9 8 9 7 6 8
7 5 6 8 4 -6 -6 -4 2 2 3 1 1 3 0 2 1 -4 -5 -5 -4 2 3 1 1 1 1 -1 -1 -2 -1 -0 -4 -4 -3 -2 -2 -2 5 7 7 7 6 5 6
5 6 6 7 5 -6 -4 1 3 0 4 2 -0 -3 -2 -1 1 -3 -3 -6 -0 3 3 2 -0 -0 1 -1 0 -0 0 -0 0 -1 -6 -7 -7 -4 -3 3 5 6 6 4 4
4 7 6 6 4 -6 5 6 -2 2 7 5 4 0 -2 -4 -7 -4 -4 -5 -3 2 2 1 -2 -0 1 1 -0 2 -1 -0 -1 -1 -1 -4 -4 -1 -4 -1 2 3 3 4 2
4 6 7 7 -1 1 6 6 3 5 1 -1 1 -2 -4 -8 -5 -5 -6 -5 -6 0 1 2 2 2 1 0 -1 1 -1 -0 -0 1 2 1 0 -2 -4 -2 2 2 1 2 2
4 6 7 7 4 -1 6 5 4 7 5 3 0 -4 -7 -8 -6 -5 -6 -6 -6 -3 -1 -1 0 -1 0 0 0 -0 -2 3 4 4 4 2 1 -0 -1 -3 -3 1 1 1 1
3 6 7 6 5 -5 3 6 8 8 1 1 -2 -5 -4 -3 -3 -3 -5 -5 -5 -1 0 -1 -0 1 1 1 -1 -1 2 5 5 6 5 3 2 1 -0 -2 -2 -1 1 1 2
2 5 7 7 4 3 4 8 8 5 4 -1 -4 -4 -2 -2 -3 -4 -4 -4 -5 -3 2 2 2 2 1 0 1 2 1 4 4 8 5 3 4 2 -1 -1 -2 -2 -2 0 3
1 4 6 5 4 5 7 8 5 5 0 -1 -4 -1 -1 -3 -3 -3 -3 -3 -5 -5 -2 4 4 2 2 2 1 1 3 1 6 6 7 4 -2 -0 0 0 1 0 0 1 2
0 4 5 5 6 3 7 6 5 3 2 2 -1 -2 -0 -2 -2 -3 -3 -4 -4 -5 -5 1 5 4 3 0 -1 -0 -1 3 4 4 4 1 0 4 2 2 2 3 2 5 5
1 4 3 6 6 4 6 5 4 1 2 4 3 0 -1 -1 -2 -2 -2 -5 -5 -5 -2 2 3 3 4 4 2 0 -0 -0 1 3 4 5 1 -4 1 2 3 3 3 6 7
2 3 2 5 5 4 6 4 2 2 2 3 4 4 0 -1 -1 -1 -2 -4 -4 0 1 1 5 5 2 1 1 2 2 2 4 0 3 4 1 -4 -1 -0 2 2 4 5 5
1 2 4 5 5 4 3 3 3 3 3 3 4 3 -2 -2 -1 -1 -2 0 1 -0 1 2 4 6 4 2 2 3 1 -0 3 3 3 3 2 -5 -6 -4 -1 1 3 4 4
1 4 5 6 4 1 3 4 5 1 1 2 3 3 3 -0 -2 -1 2 2 2 1 -1 -0 2 3 4 1 -1 1 0 -2 -0 3 2 3 0 -2 -3 -4 -7 -3 -1 4 5
3 2 3 6 5 3 1 2 4 4 1 2 3 3 4 1 -1 1 4 3 2 -1 0 1 1 0 -0 -1 -0 -1 -1 -1 -0 1 2 1 1 -1 -3 -5 -5 -6 -5 -1 5
2 3 3 4 3 4 1 2 2 1 1 1 4 4 3 2 -0 0 4 3 1 1 0 1 1 0 2 1 -1 -1 -2 -2 -1 -2 -1 -1 -1 -3 -4 -4 -4 -5 -3 -2 -1
1 3 2 2 3 4 3 1 1 -1 -1 -2 1 3 4 2 -2 -3 -0 0 1 1 2 3 4 3 3 -0 -0 2 -0 -2 -2 -3 -2 -1 -2 -4 -1 -3 -2 -1 -2 -1 0

GFSSW_850_dewp_051.txt.gz
Dewpoint
-4 -7 -10 -8 -8 -9 -10 -11 -11 -10 -9 -8 -7 -8 -8 -9 -11 -13 -8 -6 -11 -13 -15 -13 -11 -6 -4 -5 -6 -7 -6 -6 -7 -6 -0 8 8 7 6 8 9 11 10 11 12
3 -2 -6 -9 -8 -8 -10 -10 -10 -9 -8 -7 -7 -7 -8 -9 -12 -4 -5 -5 -9 -10 -9 -10 -11 -6 -5 -6 -7 -8 -7 -8 -9 -7 5 8 7 6 6 11 11 12 11 11 12
7 5 -1 -6 -9 -8 -9 -10 -10 -9 -8 -6 -7 -7 -7 -9 -12 -3 -5 -6 -4 -11 -10 -12 -11 -8 -6 -6 -6 -9 -8 -10 -10 -6 4 6 5 6 6 8 11 11 12 11 12
8 8 6 0 -6 -8 -9 -9 -9 -8 -7 -6 -6 -6 -7 -9 -10 -1 -4 -5 -5 -9 -11 -11 -9 -5 -5 -6 -10 -11 -11 -11 -11 1 4 5 4 4 5 5 9 11 12 12 11
8 8 8 5 -1 -7 -8 -9 -9 -8 -6 -5 -6 -5 -7 -8 -13 -12 -4 -5 -6 -8 -12 -10 -4 -4 -5 -7 -8 -9 -7 -5 -7 3 3 4 5 4 8 11 11 12 11 11 9
7 7 8 8 4 -4 -7 -9 -8 -8 -5 -4 -5 -5 -6 -3 -13 -7 -2 -2 -5 -8 -9 -7 -6 -5 -4 -6 -5 -4 -3 2 4 4 4 3 4 3 10 11 10 9 11 9 9
5 6 7 8 7 -0 -7 -8 -8 -7 -4 -4 -5 -5 -6 -12 -11 -3 -2 -1 -4 -7 -7 -5 -5 -4 -4 -5 -5 -3 -7 1 3 3 3 2 2 4 10 10 9 10 11 10 7
5 7 4 7 8 4 -6 -8 -8 -7 -3 -4 -4 -5 -8 -14 -16 -5 -4 -3 -2 -2 -3 -4 -3 -3 -3 -3 -3 -2 -8 -0 0 3 3 -1 1 4 9 9 10 11 11 11 9
5 6 6 5 8 6 -3 -7 -8 -6 -3 -3 -4 -5 -6 -8 -8 -8 -4 -3 -1 -3 -2 -1 -2 -3 -2 -2 -1 -2 -6 -3 -2 0 2 1 -1 2 7 9 9 9 10 11 9
1 6 6 6 7 7 -0 -8 -7 -6 0 2 -0 -1 -11 -7 -3 -3 -5 -2 -3 -4 -2 -1 -2 -2 -1 -1 2 0 -2 -5 -4 -3 1 2 -1 4 5 6 7 8 8 11 10
-7 4 7 6 6 7 1 -7 -4 4 5 1 -5 -8 -12 -7 -5 -4 -7 -6 -5 -2 -1 2 0 1 1 0 -0 -0 -2 -3 -4 -5 -1 1 0 -2 7 9 9 10 10 10 10
-12 5 8 6 6 7 1 -6 -1 3 2 -1 -2 1 -0 2 2 -3 -3 -5 -4 -1 2 0 1 -1 -0 1 -0 -1 -1 -1 -2 -3 -2 -0 1 -2 6 9 9 9 10 10 10
-20 4 7 6 7 7 0 -1 5 3 2 0 -0 0 -3 -3 0 -2 -4 -5 -1 2 2 2 -2 -1 0 -1 -0 -1 -0 -0 -0 -2 -4 -4 -2 -2 4 8 9 9 9 9 9
-26 1 6 7 7 6 -1 5 0 1 3 1 5 2 -1 -3 -3 -4 -3 -5 -0 -0 2 1 -1 -1 1 1 -0 1 -1 -0 0 -1 -3 -5 -3 -3 -1 5 7 8 7 7 7
-19 -1 5 7 5 -0 5 5 3 4 -3 -5 3 0 -1 -4 -5 -5 -4 -4 -4 1 0 0 1 0 1 -0 -1 1 -1 0 -0 1 1 1 1 -2 -3 3 4 6 6 5 5
-11 0 5 7 7 0 6 4 5 4 1 -0 1 1 -4 -7 -7 -4 -4 -5 -5 0 -1 -1 0 -1 -1 -0 -0 -1 -1 2 3 3 3 1 1 1 -1 -3 -2 3 5 5 4
-5 3 5 6 7 6 -0 5 8 6 -2 1 2 -3 -4 -6 -7 -4 -5 -4 -4 0 1 -1 -1 -0 1 -0 -1 -1 1 3 5 5 5 2 3 1 -1 -2 -4 -1 2 4 4
-3 3 5 6 7 5 3 7 8 4 4 2 -3 -4 -5 -3 -4 -2 -4 -4 -5 -3 1 2 3 1 0 0 1 2 1 4 3 6 4 3 5 1 -1 -1 -2 -2 0 2 2
0 2 4 6 6 4 6 9 5 4 3 -1 -3 -3 -2 -2 -3 -4 -3 -3 -5 -4 -2 2 2 3 1 1 -0 2 3 0 5 5 6 3 0 -2 -0 0 1 -0 -0 2 1
1 2 3 5 6 6 6 5 4 3 3 3 -1 -2 -1 -1 -2 -2 -2 -4 -4 -5 -3 1 1 3 3 1 1 -0 -0 2 3 3 5 1 0 2 1 0 1 2 1 -0 1
1 2 2 5 6 5 6 5 4 2 1 4 5 1 -1 -1 -2 -1 -2 -4 -4 -4 -4 1 -0 1 2 2 -0 0 0 -0 1 2 3 4 2 -5 1 0 1 1 2 3 3
1 2 0 3 6 4 4 3 2 2 1 3 4 5 4 -1 -1 -1 -1 -3 -6 -1 -1 0 2 3 2 -0 0 -0 1 2 4 1 3 3 1 -5 -4 -1 1 1 1 1 4
0 1 4 3 5 5 2 2 3 2 3 3 4 4 3 -0 -1 -1 -1 -3 -1 -1 1 2 3 4 2 0 2 4 3 2 2 2 3 3 2 -4 -5 -4 -2 1 1 2 5
-1 2 4 5 3 3 3 4 4 2 2 2 3 3 3 2 -0 -0 -0 2 1 -1 -2 -0 3 2 4 1 0 2 1 0 2 4 2 3 0 -2 -4 -3 -4 -5 -2 1 4
-0 -0 2 4 4 4 2 3 4 4 2 1 2 3 4 4 -0 -0 3 3 1 0 1 0 2 1 0 -2 -2 -2 -1 1 1 1 2 0 1 -1 -2 -4 -6 -6 -5 -3 -1
-1 2 3 3 2 3 3 3 3 3 2 2 2 3 2 4 2 0 3 3 2 1 1 0 1 -1 3 0 0 0 -1 -2 -1 -1 1 -0 -1 -4 -3 -3 -3 -2 -2 -0 1
-1 2 3 1 2 3 3 1 2 2 2 1 -0 0 2 4 2 1 -1 1 0 2 1 1 3 2 2 0 -0 2 0 -1 -2 -2 -2 -1 -2 -4 -1 -1 -1 -0 0 1 2

GFSSW_850_dewp_054.txt.gz
Dewpoint
2 -1 -3 -6 -9 -8 -8 -9 -10 -10 -10 -9 -9 -9 -9 -10 -12 -13 -6 -6 -9 -14 -12 -14 -10 -7 -4 -6 -6 -8 -7 -6 -7 -7 -5 8 7 8 7 9 11 11 10 11 12
7 6 4 -0 -4 -9 -8 -9 -10 -10 -10 -9 -9 -8 -8 -10 -12 -5 -5 -5 -5 -9 -7 -8 -11 -6 -4 -6 -7 -8 -6 -6 -9 -9 -2 7 7 6 7 11 12 11 11 11 12
9 8 7 6 2 -3 -8 -8 -9 -10 -9 -9 -8 -7 -8 -9 -12 -4 -4 -5 -4 -8 -10 -11 -11 -7 -6 -6 -7 -9 -7 -9 -10 -10 -1 7 7 6 7 10 11 12 12 12 12
9 9 8 8 7 2 -5 -8 -9 -9 -9 -8 -7 -7 -7 -8 -13 -1 -4 -4 -5 -7 -9 -12 -10 -5 -5 -6 -8 -8 -10 -10 -11 -8 5 6 4 5 5 6 9 11 12 12 11
7 6 8 8 8 7 1 -7 -8 -9 -8 -7 -6 -6 -6 -7 -12 -15 -7 -4 -5 -7 -9 -10 -4 -4 -5 -6 -7 -10 -8 -5 -3 -0 4 3 4 5 10 10 11 12 11 10 11
7 7 5 8 7 8 6 -3 -7 -9 -8 -6 -5 -5 -4 -4 -14 -14 -4 -2 -4 -8 -9 -6 -5 -5 -4 -4 -6 -5 -3 2 3 3 3 4 4 4 10 11 12 12 9 9 8
6 6 7 6 6 8 7 3 -6 -8 -8 -6 -3 -4 -4 -10 -14 -4 -4 -2 -2 -6 -8 -8 -6 -4 -4 -4 -5 -3 -6 1 3 4 4 2 4 4 10 11 11 7 9 9 9
3 4 5 7 6 4 8 6 -3 -7 -8 -6 -3 -3 -6 -12 -15 -5 -4 -2 -2 -2 -2 -4 -4 -3 -3 -3 -3 -3 -8 1 1 3 3 -0 1 6 11 11 11 9 8 9 7
-9 1 5 7 7 5 7 7 -1 -8 -8 -5 -2 -2 -6 -9 -10 -14 -7 -5 -2 -1 -3 -2 -3 -3 -2 -2 -2 -3 -4 -3 1 1 3 1 -0 6 11 11 11 11 7 7 8
-22 -7 4 5 7 7 5 7 -1 -7 -5 -1 3 1 -5 -7 -2 -3 -7 -5 -3 -4 -1 -2 -2 -1 -0 -0 0 1 1 -2 -3 -1 1 3 2 5 10 10 10 10 9 7 8
-20 -15 -1 4 7 7 6 7 -6 1 5 -1 -2 -4 -11 -7 -4 -4 -6 -5 -4 -3 -1 1 0 0 0 -0 -0 -1 -0 -1 -4 -6 -1 1 1 5 7 8 8 9 10 10 8
-22 -13 -7 4 7 7 7 6 -3 2 3 -2 -2 1 1 2 1 -2 -3 -5 -4 -2 1 -0 2 -1 -1 0 -1 -1 -1 -1 -3 -3 -2 -1 -1 -1 5 7 7 8 9 9 9
-24 -15 0 5 7 7 7 7 -1 5 3 -1 -4 -2 -3 -3 -1 -2 -3 -6 -3 -1 2 2 -1 -1 0 -1 -1 -1 -0 -0 -1 -2 -5 -3 -3 -1 2 8 9 9 8 8 8
-10 -17 1 5 6 6 6 4 5 4 2 -0 3 2 1 -4 -1 -4 -4 -4 -0 -1 2 1 -1 -1 0 0 -1 -0 -1 -0 0 0 -1 -4 -2 -4 -0 7 9 9 9 9 8
0 -9 1 4 5 4 4 5 2 5 -2 -6 4 2 0 -2 -5 -4 -3 -4 -0 0 -0 -0 1 0 1 -0 -1 -0 -1 1 0 1 1 0 1 -2 -3 2 6 8 8 8 8
2 -6 2 3 5 4 5 3 5 4 2 -5 2 2 2 -4 -6 -4 -3 -4 -5 0 -0 -2 -0 -1 -2 -0 -1 -1 1 1 2 2 3 1 0 0 -1 -2 2 5 8 8 8
2 -0 1 3 5 5 6 5 7 6 -3 -1 2 -2 -3 -4 -6 -4 -3 -4 -2 1 1 -1 -1 -1 -0 -0 -0 -1 0 3 5 5 4 2 3 1 -2 -3 -3 -1 4 7 7
2 1 0 3 5 6 6 7 7 3 3 1 -2 -2 -3 -6 -5 -4 -4 -2 -5 -3 0 1 2 0 -0 -0 -0 1 0 4 3 5 2 2 3 1 -2 -1 -1 -1 -3 1 6
1 1 1 3 5 6 6 8 4 4 2 0 -3 -2 -4 -4 -5 -3 -3 -3 -4 -3 -2 2 0 1 1 1 -1 2 2 -0 4 5 5 2 0 -4 -1 -0 1 -0 -0 -1 1
1 2 0 2 5 6 6 5 4 2 3 3 0 -3 -2 -2 -2 -3 -2 -4 -4 -4 -4 -1 -1 2 2 1 0 -0 0 2 3 4 5 1 -0 -0 -2 -0 -0 1 1 1 2
2 1 -1 2 4 5 5 4 3 1 2 3 5 4 -2 -1 -1 -2 -2 -4 -4 -4 -4 -0 -2 -1 1 1 0 2 1 1 1 2 3 4 2 -4 -4 -1 -1 -1 1 1 0
1 0 -1 0 5 4 5 3 2 2 2 2 3 5 4 -1 -1 -1 -1 -4 -5 -3 -2 -0 -0 2 2 0 -1 -1 1 1 4 2 3 3 2 -4 -6 -5 -1 -1 -0 1 2
1 -1 3 -0 4 4 3 3 2 3 3 2 3 3 3 1 -2 -1 -1 -4 -4 -3 -1 1 1 1 0 -1 2 2 2 2 2 2 3 3 2 -4 -4 -5 -5 -2 -2 0 1
1 0 3 3 1 2 3 3 3 2 2 2 3 2 3 3 1 -2 -1 -0 -1 -3 -2 -2 2 -0 1 -1 -0 4 3 2 2 4 3 2 0 -2 -3 -3 -4 -4 -5 -3 -0
1 -1 1 3 2 3 1 1 3 3 2 2 3 3 3 4 2 -0 2 3 1 1 0 -1 1 1 -1 -2 -1 -1 -1 1 1 1 2 0 1 -1 -2 -3 -5 -5 -5 -4 -4
1 -0 1 2 -0 2 3 2 2 2 3 3 3 2 2 4 3 3 3 2 2 1 1 0 1 -1 2 0 -0 0 -1 0 -0 -1 -0 -1 -0 -3 -3 -2 -1 -1 0 3 3
0 -1 0 0 1 1 2 2 2 2 2 1 1 1 1 2 1 1 2 1 1 2 2 1 2 2 2 0 0 2 0 -1 -1 -2 -1 1 -1 -4 -1 -1 -0 0 2 3 3

GFSSW_850_dewp_057.txt.gz
Dewpoint
7 6 6 5 1 -2 -6 -8 -8 -9 -10 -10 -10 -9 -9 -10 -12 -13 -4 -5 -8 -14 -8 -10 -10 -6 -4 -9 -6 -8 -5 -5 -6 -7 -5 7 8 8 7 10 10 11 11 11 12
9 9 8 7 7 4 0 -6 -8 -9 -9 -10 -9 -9 -8 -9 -12 -8 -4 -5 -4 -12 -10 -11 -10 -5 -4 -5 -6 -7 -5 -6 -8 -9 -6 6 7 6 7 11 11 11 11 12 12
9 9 9 8 8 8 6 1 -6 -8 -9 -9 -9 -8 -8 -9 -12 -4 -4 -4 -4 -7 -8 -9 -11 -7 -6 -6 -7 -8 -6 -8 -9 -9 -6 3 7 5 7 9 10 11 11 12 12
8 8 8 8 9 8 8 6 -1 -7 -9 -9 -8 -7 -7 -8 -12 -1 -3 -4 -5 -6 -8 -11 -11 -6 -4 -5 -7 -7 -8 -8 -10 -9 -2 2 6 6 7 7 6 10 12 12 12
7 7 8 7 6 8 8 8 5 -4 -8 -9 -8 -6 -6 -7 -10 -13 -8 -4 -5 -6 -9 -12 -7 -4 -4 -5 -7 -9 -8 -5 -6 -2 1 4 5 5 9 9 10 11 11 12 11
3 7 7 8 7 6 7 8 7 1 -6 -8 -8 -6 -3 -4 -12 -14 -7 -2 -5 -7 -9 -7 -5 -5 -4 -4 -5 -6 -5 -0 3 3 4 4 6 6 10 11 11 12 11 11 11
-1 2 6 5 5 7 6 6 8 5 -4 -7 -7 -4 -3 -8 -11 -13 -5 -1 -3 -6 -8 -8 -5 -4 -4 -3 -4 -3 -2 -1 4 4 4 4 4 4 10 11 11 11 11 10 11
-21 -9 1 5 3 5 7 5 7 7 1 -7 -7 -3 -4 -9 -11 -14 -4 -2 -2 -3 -5 -5 -5 -3 -3 -3 -3 -3 -7 -1 1 3 3 2 4 7 10 11 10 11 10 10 9
-24 -18 -12 1 6 6 8 6 6 7 4 -6 -5 -2 -4 -8 -10 -14 -6 -3 -4 -2 -2 -2 -3 -2 -2 -1 -2 -1 -3 -3 -0 2 3 1 1 6 10 11 10 10 10 10 10
-25 -24 -21 -12 4 5 7 7 5 6 1 -2 1 1 -5 -7 -3 -4 -8 -8 -4 -3 -2 -2 -2 -1 -0 -0 -0 1 1 -1 -2 -2 2 3 3 7 10 11 10 9 9 9 10
-13 -24 -24 -12 -0 5 7 7 4 -1 4 -2 -0 -2 -9 -7 -4 -4 -5 -6 -3 -3 0 1 1 2 0 0 -1 -1 -0 -1 -3 -4 2 3 2 3 10 10 10 9 9 8 6
1 -5 -17 -14 -1 4 7 7 6 3 4 -2 -3 1 -1 -1 1 -1 -2 -3 -3 -2 1 1 3 1 -1 0 0 -0 -0 -0 -2 -2 -2 -2 -2 -1 8 10 9 8 8 7 7
2 1 -7 -7 4 5 7 5 7 2 5 4 -1 -4 -3 -3 0 -2 -2 -4 -3 -1 2 3 0 -1 0 -0 0 -0 0 0 0 -1 -4 -4 -4 -1 4 7 8 8 8 8 7
2 2 -3 3 1 5 4 5 4 5 5 0 1 -0 -2 -4 -1 -5 -3 -5 -1 -2 1 0 -1 -0 0 1 -0 0 -1 -0 1 1 0 -3 1 -2 -2 6 7 7 8 8 9
2 2 -2 3 5 5 4 5 4 4 0 -5 4 2 1 -1 -4 -2 -3 -4 0 0 1 -0 1 1 1 0 -1 0 -0 1 1 1 1 0 1 -1 -3 -1 4 7 8 9 8
2 2 -1 2 5 3 4 5 4 6 5 -4 3 3 3 1 -5 -2 -4 -4 -3 1 0 -2 -1 -1 -1 -0 -1 -0 1 1 1 2 4 1 1 0 -2 -2 -2 1 6 9 7
1 2 1 0 0 3 6 6 7 7 -0 -2 4 1 1 -1 -5 -3 -2 -1 -0 2 2 -1 -0 -1 -0 0 -0 -1 1 4 5 6 4 2 2 1 -2 -3 -2 -2 1 6 7
0 1 1 -0 3 3 6 6 7 3 3 -0 -1 1 -1 -4 -4 -3 -2 -1 -4 -2 1 1 1 0 0 -0 1 1 1 5 3 4 2 1 3 -1 -1 -2 -1 -0 -1 -1 3
-0 2 1 -0 3 5 6 7 3 3 1 1 -3 1 0 -5 -4 -3 -1 -1 -3 -2 -1 2 0 0 1 1 -1 2 2 0 5 5 6 2 0 -4 -3 -2 -0 1 -1 -1 -2
-0 2 1 -1 3 5 5 4 4 1 2 3 3 -1 1 -2 -2 -2 -1 -3 -3 -3 -2 1 1 2 2 1 1 1 0 3 3 5 5 1 0 -2 -2 -1 -0 -1 1 -0 1
1 1 0 0 2 4 5 3 2 2 2 3 5 5 -1 -1 -2 -1 -1 -4 -4 -3 -3 -1 -1 -0 2 2 1 2 2 1 1 2 3 3 0 -1 -3 -2 0 0 -0 0 -1
1 1 -0 -1 3 3 4 2 1 1 2 2 3 5 4 -1 0 -0 -2 -3 -5 -3 -1 0 2 4 1 0 -1 0 2 2 5 3 3 4 2 -3 -3 -4 -3 -2 -2 -0 0
1 1 -1 -2 2 3 2 2 1 2 2 3 3 3 4 3 -1 -0 -1 -4 -4 -2 1 1 1 2 -0 -0 2 2 1 1 2 3 4 7 3 -3 -3 -3 -4 -4 -4 -2 0
1 1 2 2 -0 0 2 2 3 1 2 2 3 2 3 3 2 -1 -0 -1 -3 -3 -3 -2 2 1 1 -0 0 4 3 2 3 5 4 3 1 -1 -2 -2 -3 -3 -5 -5 -5
1 1 0 2 1 1 0 1 1 3 1 2 3 3 3 3 3 1 2 3 1 0 0 1 2 1 -1 -2 -0 0 2 3 2 2 4 2 1 -1 -2 -2 -3 -3 -3 -1 0
0 1 -0 1 -0 1 1 2 1 1 2 2 3 3 3 3 3 3 2 2 2 2 2 1 2 2 1 0 -1 -0 -1 1 2 1 1 -0 0 -2 -3 -3 -0 1 3 4 4
-1 -2 -2 -1 1 0 1 -0 1 1 1 1 1 2 2 2 1 0 1 2 2 2 3 2 3 3 3 1 1 4 2 0 0 -0 1 2 1 -2 -2 -1 0 2 3 4 4

GFSSW_850_dewp_060.txt.gz
Dewpoint
9 9 9 8 7 7 6 3 -3 -9 -9 -10 -10 -10 -10 -10 -11 -13 -6 -5 -9 -14 -7 -7 -6 -3 -4 -8 -8 -8 -9 -8 -8 -8 -4 1 2 8 8 7 9 10 10 12 12
8 8 9 9 9 8 8 7 5 -2 -8 -9 -10 -10 -10 -9 -11 -12 -4 -5 -6 -13 -9 -8 -7 -5 -5 -6 -8 -8 -7 -9 -10 -10 -8 -6 2 4 7 7 8 11 12 12 12
7 8 8 9 9 9 8 8 8 5 -3 -8 -9 -10 -9 -9 -7 -4 -4 -5 -5 -9 -6 -5 -8 -5 -6 -6 -7 -7 -8 -9 -8 -8 -8 -7 -1 1 4 4 6 10 11 11 11
7 7 7 8 8 7 7 8 7 7 4 -5 -9 -9 -8 -8 -7 -3 -3 -4 -4 -5 -7 -6 -8 -7 -6 -6 -6 -6 -8 -7 -7 -7 -6 -5 -1 3 4 6 8 10 11 11 11
-5 4 6 7 7 7 5 5 7 7 7 1 -7 -9 -8 -2 -5 -11 -3 -4 -4 -5 -5 -8 -9 -6 -6 -7 -5 -5 -7 -6 -4 -0 -2 1 2 4 6 9 11 12 11 11 11
-20 -6 -1 5 7 7 6 6 5 4 7 5 -3 -7 -5 -3 -8 -12 -13 -3 -5 -5 -5 -8 -5 -4 -4 -4 -4 -5 -5 -4 0 0 2 3 4 5 7 10 11 12 11 11 11
-26 -21 -5 -2 2 5 7 6 5 3 6 7 2 -6 -4 -3 -8 -11 -11 -2 -4 -3 -6 -6 -5 -3 -3 -4 -3 -4 -3 -4 1 1 3 3 4 3 7 10 11 11 11 11 11
-27 -27 -23 -14 -3 3 6 6 5 4 4 7 5 -5 -1 -8 -10 -12 -11 -1 -3 -5 -5 -5 -4 -2 -2 -2 -4 -4 -4 -4 1 2 3 3 1 2 8 9 9 11 10 11 11
-19 -26 -28 -23 -12 -5 5 5 7 5 4 5 4 -3 -2 -5 -8 -10 -10 -1 -1 -4 -3 -3 -3 -1 -1 -3 -4 -5 -4 -5 1 2 2 3 0 4 8 8 7 8 9 10 10
1 -15 -23 -27 -17 -6 -5 5 6 5 3 3 1 2 -4 -5 -4 -4 -13 -3 -2 -1 -1 -1 -2 -1 -2 -3 -4 -6 -3 -5 -5 -0 2 1 -1 2 8 8 7 6 7 9 9
3 0 -13 -19 -19 -8 3 5 5 4 4 0 1 -1 -4 -3 -3 -1 -5 -5 -4 -1 -1 -0 -1 -0 -4 -3 -1 -3 -3 -4 -4 -4 1 -1 -2 -4 5 8 7 6 6 7 8
2 3 0 -8 -13 -8 4 6 5 4 3 2 -2 1 -1 0 0 0 -3 -4 -3 -1 -1 1 0 -3 -2 -1 -0 -1 -3 -4 -3 -3 -2 -3 -3 -4 0 7 7 6 6 6 7
2 2 2 -1 -4 -3 6 6 5 6 4 2 2 -0 -2 -1 -1 -2 -2 -5 -3 -1 -1 -1 -2 -2 -1 -0 0 -1 -1 -2 -2 -2 -3 -3 -4 -3 1 5 7 8 7 5 5
1 2 2 -1 -3 3 5 4 5 4 4 -1 1 1 -0 -2 -1 -4 -1 -5 -4 -2 -2 -2 -3 -1 -1 -1 -2 -0 -3 -2 -2 -2 -1 -3 -1 -4 -3 1 4 5 7 6 5
1 1 2 -0 4 6 6 1 5 5 -4 -5 1 1 1 -4 -5 -4 -3 -4 -4 -3 -2 -2 -1 -1 -1 -2 -2 -2 -2 -1 -1 -1 0 -1 -1 -4 -3 -3 -0 3 4 6 6
2 1 2 0 3 4 5 5 5 5 -0 -4 3 3 2 -1 -3 -3 -3 -4 -6 -3 -2 -4 -2 -2 -3 -2 -2 -2 -0 0 1 1 2 -1 -1 -3 -5 -5 -4 -4 1 3 5
0 1 2 2 2 4 5 6 6 3 -5 -5 3 3 0 -2 -2 -3 -3 -2 -3 -0 -0 -2 -2 -3 -1 -0 -0 -0 0 3 4 4 2 0 0 -3 -4 -4 -3 -2 -2 -0 3
-2 1 1 2 3 4 5 7 3 -7 -4 -2 0 1 1 -4 -4 -3 -2 -2 -5 -4 -3 -1 0 -2 -1 -1 -1 0 -0 2 3 3 1 0 -1 -4 -3 -4 -2 -0 0 0 0
-3 1 1 2 1 4 6 6 -4 -4 -4 -3 -2 3 1 -4 -4 -2 -2 -3 -4 -4 -3 -2 -3 -2 -1 -1 -1 1 2 -0 3 5 5 -1 -2 -5 -5 -4 -1 -2 -1 0 -0
-2 1 1 1 -0 3 5 2 -3 -3 -2 2 -2 1 3 -2 -3 -3 -2 -4 -3 -5 -6 -2 -1 -1 1 0 1 1 -1 2 2 4 3 -0 -1 -4 -5 -2 -5 -5 -4 -2 2
-2 2 1 -0 0 2 4 1 -2 -2 0 2 1 3 -1 -1 -4 -2 -2 -4 -4 -3 -5 -4 -2 3 2 2 -0 1 2 1 0 1 3 2 -1 -5 -5 -4 -1 -1 -2 -1 1
0 1 0 -1 1 2 3 -0 -3 -3 1 2 2 4 4 -2 -3 -5 -3 -5 -5 -5 -2 -3 -2 0 -1 0 -1 -1 -0 1 2 2 3 3 0 -6 -4 -3 -4 -3 -2 0 2
0 1 0 0 1 2 1 0 -3 -1 -1 2 2 2 3 4 -1 -3 -4 -5 -4 -4 -3 -2 -1 1 0 0 1 -0 -1 -1 0 1 1 6 0 -4 -3 -3 -3 -4 -3 -2 1
1 2 2 2 -2 -1 0 -1 -0 -2 -1 0 1 1 2 2 2 -0 -2 -1 -2 -4 -3 -2 -2 -1 1 -2 -4 -1 -1 -1 -1 2 -0 1 -1 -4 -3 -4 -4 -3 -2 -3 -3
1 1 1 1 1 -2 -2 -2 -1 -0 -1 1 2 2 1 2 3 3 -0 2 -1 -1 -3 -1 -1 -2 -4 -5 -6 -5 -5 -3 -2 -2 -1 -2 -3 -2 -3 -3 -3 -2 -1 2 3
0 -2 0 -2 -1 -1 -1 -0 -2 -2 -1 1 1 1 2 3 3 3 1 2 2 2 -0 -0 -1 -1 -0 -3 -3 -3 -4 -5 -3 -3 -1 -1 -2 -4 -3 -3 -2 -0 2 3 5
0 -2 -2 -3 -1 -0 -0 -1 -2 -3 -2 -2 0 2 3 1 0 1 0 0 1 2 3 2 1 2 1 0 0 4 0 -3 -2 -1 -1 -0 -2 -4 -2 -2 -2 1 3 4 5

GFSSW_850_dewp_063.txt.gz
Dewpoint
9 9 8 9 9 9 8 8 7 6 2 -5 -9 -10 -10 -10 -11 -6 -1 -2 -7 -11 -6 -2 -4 -5 -6 -8 -9 -10 -10 -10 -10 -9 -6 -2 -3 4 5 4 7 8 9 12 11
5 7 8 8 9 9 9 8 8 7 7 4 -4 -9 -10 -10 -10 -2 -4 -4 -6 -12 -7 -4 -6 -6 -6 -8 -10 -10 -8 -9 -11 -11 -9 -9 -6 -1 1 -2 6 10 12 12 12
3 4 6 7 7 8 8 8 7 7 7 6 3 -5 -9 -10 -1 -3 -5 -6 -5 -12 -4 -7 -8 -8 -7 -9 -9 -10 -9 -10 -10 -9 -8 -8 -7 -4 1 -0 8 7 12 11 11
-11 1 4 6 6 5 8 7 5 5 6 6 6 1 -6 -8 -3 -2 -5 -4 -5 -7 -2 -6 -8 -9 -8 -8 -9 -8 -11 -11 -10 -8 -8 -7 -5 -3 0 5 7 10 12 11 11
-25 -19 -7 -1 3 5 6 6 4 3 5 5 6 5 -2 -0 -2 -4 -8 -3 -4 -5 -2 -6 -9 -10 -8 -9 -9 -8 -10 -10 -9 -7 -4 -4 -4 -2 2 7 11 12 12 12 11
-22 -25 -22 -13 -5 -3 2 6 5 3 3 3 3 6 3 0 -5 -6 -13 -7 -3 -2 -4 -7 -11 -9 -5 -7 -7 -8 -7 -9 -8 -5 -4 -3 -3 2 5 8 11 11 11 11 11
-6 -20 -23 -23 -13 -9 -5 -4 2 0 2 3 2 7 5 1 -3 -4 -10 -2 -1 -3 -6 -9 -7 -5 -5 -5 -6 -6 -6 -7 -7 -5 -5 -2 -1 6 6 8 10 11 11 11 11
-1 -2 -15 -21 -23 -21 -15 -9 -3 -2 -1 3 3 6 4 -4 -3 -4 -4 -2 -1 -3 -4 -6 -5 -3 -4 -6 -5 -6 -7 -5 -4 -5 -3 -2 7 7 5 8 9 9 9 10 8
2 -0 -4 -12 -23 -25 -23 -19 -12 -0 3 3 4 6 1 -2 -3 -4 -5 -4 -1 -2 -3 -4 -3 -4 -4 -4 -5 -7 -6 -3 0 -5 -3 -2 4 6 2 4 7 7 7 9 8
2 2 1 -4 -16 -25 -26 -12 -5 -2 5 5 5 3 1 -5 -5 -5 -5 -5 -1 -2 -2 -2 -3 -2 -3 -4 -3 -5 -7 -5 -7 -1 -4 -3 -2 2 2 3 4 5 6 7 8
2 2 2 2 -8 -15 -23 4 5 7 6 0 -2 -4 -4 -4 -3 -3 -6 -4 -3 -2 -1 -3 -2 -1 -3 -4 -5 -4 -6 -7 -5 -5 -3 -2 -0 -3 2 2 3 4 4 6 6
3 2 2 2 1 -7 -7 3 1 5 0 -0 1 -2 -1 -2 -1 -3 -5 -4 -4 -1 -3 -1 -0 -4 -4 -5 -3 -3 -4 -6 -6 -5 -4 -4 -1 -4 -3 2 2 4 3 5 6
1 2 2 2 2 -6 3 2 4 5 3 -3 -4 -2 -4 -4 -2 -3 -4 -5 -4 -3 -3 -1 -3 -5 -3 -4 -2 -2 -3 -1 -2 -1 -5 -4 -4 -5 -5 0 3 3 3 3 5
0 2 2 2 -0 -0 3 1 5 6 2 -8 -1 -2 -4 -5 -3 -4 -4 -5 -5 -3 -3 -3 -5 -3 -3 -2 -3 -1 -5 -4 -4 -3 -1 -0 2 1 -5 -2 1 3 5 4 3
-2 3 2 1 3 3 3 3 6 7 -6 -8 -2 -1 -2 -4 -10 -7 -5 -7 -5 -4 -4 -3 -4 -2 -2 -2 -4 -2 -2 -3 -3 -1 -0 -1 -3 2 -5 -7 -4 1 4 4 2
-3 1 2 2 2 4 6 5 7 4 -4 -7 -0 -1 0 -2 -6 -8 -7 -5 -7 -6 -5 -4 -6 -5 -4 -5 -4 -4 -2 -2 -2 -1 4 -1 -1 0 -3 -7 -8 -7 -1 2 3
-2 -3 2 2 2 2 6 6 2 -1 -11 -10 0 1 -0 -1 -3 -5 -5 -3 -4 -3 -2 -4 -3 -4 -4 -2 -3 -2 -1 2 4 7 4 1 -2 -1 -1 -6 -6 -6 -6 -2 1
-0 -4 -0 2 1 2 5 6 0 -9 -9 -5 -2 2 1 -3 -2 -4 -3 -2 -4 -7 -3 -2 -0 -3 -4 -3 -1 -1 -1 3 7 6 7 -1 -2 -3 -6 -7 -6 -4 -3 -2 -1
0 -0 -1 2 1 2 3 5 -1 -7 -13 -11 -3 2 2 -2 -4 -4 -3 -4 -5 -6 -2 -3 -3 -6 -5 -5 -4 -0 1 -1 3 2 2 -1 -4 -7 -7 -8 -6 -5 -4 -2 -1
0 1 -0 2 1 3 3 4 -5 -11 -15 -9 -6 -2 1 -2 -3 -3 -3 -6 -5 -7 -7 -4 -2 -5 -4 -3 -3 0 -2 2 1 5 5 -1 -3 -3 -5 -4 -7 -7 -6 -5 -1
1 1 0 2 1 3 3 2 -0 -10 -10 -7 -4 -8 -2 -0 -3 -2 -3 -6 -6 -7 -7 -5 -3 -2 -1 -0 -2 -0 2 0 2 4 4 2 -2 -4 -6 -6 -5 -5 -6 -5 -3
1 2 -0 1 2 1 2 -0 -2 -5 -9 -4 0 -6 -2 -0 -2 -2 -3 -4 -7 -7 -3 -5 -3 1 0 -5 -5 -3 -1 -1 2 1 1 2 2 -6 -6 -7 -6 -6 -5 -4 -1
1 1 0 1 2 2 -2 -1 -1 -3 -7 -4 -0 0 0 1 0 -2 -3 -4 -6 -5 -3 -4 -2 1 -1 -0 -2 -1 -1 -1 -0 -1 2 7 2 -5 -5 -5 -6 -6 -6 -4 -2
1 1 2 2 -1 -1 -2 -3 -2 -2 -4 -5 -3 -0 3 4 1 -0 -2 -3 -2 -4 -5 -3 -3 -1 1 -1 -2 -1 -3 -3 -1 4 1 -0 -3 -4 -5 -5 -6 -6 -5 -5 -3
1 1 2 3 2 -1 -3 -4 -4 -4 -4 -5 -2 -2 2 3 1 2 -1 -0 -1 -3 -2 -2 -1 -2 -4 -5 -5 -5 -4 -4 -2 -2 1 -2 -3 -6 -6 -5 -5 -3 -3 -2 -1
0 -1 0 -1 1 -0 -2 -4 -4 -6 -5 -1 -2 -3 -1 2 1 3 0 0 -1 -2 -1 -2 0 -1 -2 -4 -5 -4 -6 -6 -7 -6 -6 -6 -5 -7 -7 -8 -5 -3 -2 -0 2
0 -3 -2 -1 1 0 -0 -4 -6 -6 -6 -6 -5 -2 -1 2 1 1 1 0 1 2 -1 -0 2 1 2 -3 -3 2 -3 -5 -6 -6 -5 -2 -4 -7 -6 -6 -5 -4 -0 1 4

GFSSW_850_dewp_066.txt.gz
Dewpoint
4 8 8 8 8 8 8 8 7 7 7 6 5 3 -2 -7 -8 -8 -1 -1 -1 -8 -10 -2 -4 -3 -5 -7 -8 -10 -9 -9 -9 -7 -1 -1 -2 -2 1 -2 4 9 13 12 11
-10 2 5 6 7 8 8 8 8 7 7 6 5 5 3 -3 -6 -7 -1 -2 -4 -8 -11 -2 -4 -6 -6 -7 -9 -11 -9 -9 -9 -11 -11 -9 -7 -6 1 4 5 1 8 11 11
-20 -16 -5 4 5 6 6 5 6 4 4 2 3 3 2 0 -2 1 -7 -7 -5 -8 -10 -4 -6 -8 -8 -8 -9 -10 -9 -11 -11 -11 -9 -9 -8 -5 -5 5 5 4 8 11 12
-24 -24 -20 -11 -1 1 3 4 4 4 1 1 -1 1 -0 1 0 -2 -6 -6 -7 -7 -11 -3 -6 -7 -8 -8 -9 -9 -10 -12 -12 -11 -9 -8 -8 -7 1 5 3 5 12 11 11
-19 -23 -25 -25 -22 -12 -5 -4 2 -0 -1 1 2 -1 -2 2 -0 -2 -3 -6 -4 -6 -4 -3 -6 -9 -9 -10 -10 -9 -10 -12 -11 -11 -10 -7 -5 -5 6 9 11 12 12 11 11
-4 -12 -22 -25 -26 -24 -18 -14 -11 -6 -6 -3 1 2 5 3 -5 -5 -3 -3 -6 -3 -3 -3 -7 -10 -11 -9 -7 -9 -8 -9 -9 -10 -9 -6 -4 3 6 6 11 11 12 12 12
2 -0 -5 -15 -25 -28 -26 -23 -20 -13 -7 -6 -0 4 6 1 -11 -3 -3 -2 -1 -2 -3 -5 -7 -10 -6 -6 -7 -7 -7 -8 -9 -8 -7 -7 -4 4 5 8 10 11 11 10 11
3 3 2 -4 -18 -25 -29 -27 -25 -21 -18 -9 2 5 5 -4 -3 -2 -3 -3 -3 -2 -3 -5 -8 -7 -5 -5 -5 -6 -6 -5 -8 -7 -5 -5 -0 4 3 6 8 9 10 10 10
3 3 3 3 -1 -16 -26 -30 -29 -23 -16 -3 2 5 2 -4 -2 -4 -4 -4 -4 -2 -4 -4 -5 -5 -5 -3 -3 -6 -5 -7 -6 -5 -4 -1 4 6 2 5 7 7 8 7 9
1 3 2 2 2 -2 -19 -27 -25 -7 3 4 5 4 1 -4 -5 -3 -4 -5 -6 -2 -3 -4 -4 -4 -3 -3 -0 -3 -4 -4 -6 -3 -3 -5 7 6 4 6 6 5 7 7 8
-2 1 2 2 2 2 -10 -14 3 8 7 4 1 -1 -7 -4 -6 -5 -5 -5 -6 -2 -1 -4 -3 -2 -3 -3 -3 -4 -5 -4 -4 -4 -3 -4 -3 4 5 4 5 4 6 7 5
-5 -1 1 2 2 2 -2 3 -4 4 3 2 4 2 -0 -2 -2 -4 -5 -6 -5 -1 -3 -2 -0 -4 -5 -4 -4 -3 -3 -4 -6 -4 -5 -6 -4 1 3 -0 -0 2 4 5 5
-3 -5 0 2 1 1 1 -0 -0 4 2 -3 -5 -7 -4 -3 -3 -3 -5 -7 -5 -2 -2 -0 -2 -4 -4 -4 -3 -4 -5 -2 -0 -3 -5 -4 -4 -3 -4 -1 -1 1 2 5 5
-1 -4 -3 3 1 0 1 -1 1 4 3 -10 -9 -5 -8 -5 -6 -4 -4 -7 -6 -3 -3 -2 -4 -3 -4 -2 -4 -2 -6 -3 -4 -3 -2 -1 2 1 -2 -3 -0 -0 1 2 4
-1 -3 -3 2 1 3 2 2 3 6 -2 -15 -11 -3 -4 -5 -9 -6 -4 -5 -5 -4 -5 -3 -4 -3 -2 -4 -4 -2 -2 -1 -3 -3 -1 -0 3 1 -2 -3 -3 0 2 3 3
1 -2 -3 2 1 -0 4 5 4 5 -5 -10 -2 -2 -3 -5 -7 -10 -4 -4 -6 -5 -5 -5 -6 -5 -4 -5 -4 -5 -3 -2 -2 -1 3 -1 1 2 -1 -0 -5 -1 2 4 3
-0 -1 -2 2 2 1 3 4 5 -0 -15 -14 -2 -2 -3 -2 -4 -7 -5 -2 -3 -2 -1 -4 -4 -6 -6 -4 -4 -4 -1 3 5 6 6 -0 1 1 1 -2 -4 -6 1 3 2
-1 -0 -1 2 1 2 2 5 3 -6 -8 -9 -11 -2 -1 -2 -2 -3 -5 -3 -3 -6 -3 -1 0 -4 -5 -3 -3 -2 -1 4 8 10 9 5 2 -3 -3 -5 -7 -6 -5 -2 1
-1 1 0 -0 1 2 3 5 2 -4 -10 -9 -6 -1 1 -2 -3 -2 -2 -3 -4 -5 -2 -1 -2 -6 -5 -5 -4 -1 2 -1 8 8 10 6 1 -5 -6 -8 -8 -6 -4 -3 -3
1 1 1 -1 1 3 3 3 -2 -4 -7 -10 -8 -3 1 -0 -1 -2 -2 -3 -4 -5 -4 -4 1 -4 -5 -5 -5 -4 -2 3 3 10 6 -2 -2 -1 -4 -5 -6 -7 -5 -4 -1
1 1 1 0 1 3 4 2 -1 -5 -7 -8 -8 -8 -10 -3 -2 -3 -2 -4 -3 -4 -4 -4 -1 -1 -4 -3 -3 -3 1 3 0 1 6 8 4 2 -2 -5 -5 -4 -6 -5 -3
1 2 1 1 3 2 2 1 -2 -7 -6 -4 -5 -9 -7 -6 -2 -3 -3 -3 -6 -4 -3 -3 -1 2 -2 -4 -4 -4 -1 2 5 5 5 7 4 1 -0 -6 -5 -6 -5 -5 -4
1 1 1 0 3 2 1 -2 -1 -4 -5 -4 -4 -6 -3 -0 -2 -0 -3 -3 -4 -3 -1 -2 -1 2 2 -1 -2 -4 -3 -2 0 2 4 9 4 -4 -5 -5 -6 -6 -6 -5 -4
1 2 2 2 0 1 1 -1 -1 -4 -5 -5 -4 -5 -2 1 -1 2 -1 -2 -2 -1 -3 -0 -1 0 4 3 -1 -1 -3 0 1 6 5 4 2 0 -3 -3 -5 -6 -6 -6 -4
1 2 2 3 2 1 -1 -3 -2 -3 -5 -4 -2 -3 -1 0 0 0 0 -2 -1 -2 -0 0 2 -0 -3 -3 -3 -2 -3 -4 -4 -0 4 2 -2 -3 -4 -5 -5 -3 -3 -5 -5
-0 -1 -1 -3 1 0 0 -1 -3 -5 -5 -4 -2 -3 1 2 -1 -3 -2 -0 2 -1 0 1 2 1 2 -2 -3 -2 -4 -4 -4 -4 -4 -3 -2 -5 -7 -8 -7 -4 -3 -2 -2
0 -2 -1 -1 1 2 1 1 -3 -5 -7 -7 -6 -2 1 2 5 2 2 1 1 3 2 2 3 2 4 -1 -2 1 -1 -4 -5 -5 -5 -3 -4 -7 -7 -6 -6 -6 -5 -3 2